GEFSNGP_500_meanwind_150.txt.gz
Wind_Speed
28 28 27 26 26 26 24 22 20 18 17 15 15 14 14 14 13 13 12 12 12 12 11 11 11 10 10 9 8 8 8 9 10 10 10 10 10 10 11 12 12 13 14 15
28 28 28 28 27 26 25 23 21 19 17 17 16 15 15 14 14 13 13 13 13 12 12 11 11 11 10 10 9 10 10 10 10 10 10 11 11 12 12 13 13 14 15 15
28 28 29 30 28 27 26 24 21 19 18 18 17 17 16 15 15 15 14 13 13 12 12 11 11 11 11 11 11 11 11 11 11 11 11 12 12 12 13 14 14 15 15 16
29 29 29 28 28 27 26 24 23 22 20 19 18 18 17 17 16 16 15 15 14 13 12 13 13 13 13 12 12 12 13 13 13 13 13 13 13 14 15 15 16 17 17 17
32 30 29 31 29 27 26 25 24 23 22 21 19 19 19 18 17 18 18 17 16 15 15 15 14 13 13 13 14 14 14 14 14 15 15 15 16 16 16 17 18 18 18 18
35 32 30 31 30 27 26 27 26 25 23 22 21 20 20 20 20 20 19 19 18 17 17 16 16 15 14 14 15 15 16 16 16 16 16 17 17 18 18 19 19 19 19 20
37 35 33 34 31 29 28 28 27 26 24 23 23 22 22 21 21 21 21 20 20 19 19 19 18 17 17 17 17 17 18 18 18 18 18 18 19 19 20 20 20 21 21 22
39 37 36 36 33 32 31 29 29 28 26 26 25 24 23 23 22 22 22 22 22 22 21 21 20 20 19 19 19 19 19 20 20 20 20 21 21 22 22 22 22 23 23 24
42 41 40 38 36 34 33 31 30 29 28 27 26 26 25 24 25 24 23 23 24 24 24 24 23 22 22 22 22 22 21 21 21 22 22 23 23 24 24 24 25 25 25 25
43 43 42 40 38 37 35 33 31 30 29 28 28 27 27 27 27 27 26 26 26 26 26 26 26 25 25 24 24 24 23 23 23 24 24 25 25 25 25 25 25 26 26 26
43 43 42 42 41 39 37 36 34 32 31 31 30 29 29 29 29 29 28 28 28 28 28 28 28 28 28 28 27 26 26 25 25 25 26 26 26 26 26 26 26 26 26 26
43 43 43 42 41 40 39 38 36 35 34 32 31 31 30 30 30 29 30 30 30 30 30 30 30 30 29 30 30 29 28 28 27 27 27 28 28 28 28 28 27 27 27 27
42 41 41 41 41 40 40 39 37 36 35 34 33 32 32 31 30 30 31 31 30 31 31 31 31 31 30 31 31 30 29 29 29 29 30 30 30 29 29 29 29 29 29 29
40 39 39 39 39 39 39 38 38 37 36 35 35 34 32 32 32 31 32 31 31 31 31 32 33 32 32 32 32 31 30 30 30 31 31 31 30 30 30 30 30 30 30 31
37 38 38 37 38 38 38 37 37 36 36 35 35 35 34 34 33 33 32 33 33 33 33 33 34 33 33 33 33 32 31 31 32 32 32 32 32 32 32 31 31 31 31 31
35 35 36 36 37 37 37 37 36 36 35 35 35 34 34 34 33 32 33 34 34 33 33 34 34 33 32 32 33 32 32 32 32 32 32 32 32 33 32 32 31 31 30 30
32 33 34 35 35 36 36 36 36 35 35 35 35 35 35 34 32 31 32 34 34 35 35 34 34 33 33 33 33 32 32 32 32 32 32 32 32 31 32 32 31 31 31 31
30 31 32 33 34 34 35 35 35 34 34 34 34 33 33 33 32 32 33 34 34 34 34 35 34 33 33 33 33 32 31 31 31 31 31 30 31 31 31 31 31 31 31 30
29 29 30 31 32 33 33 33 34 33 33 33 33 33 34 33 33 33 33 33 33 34 33 33 32 32 32 32 31 30 30 30 30 29 30 30 30 30 31 31 31 31 30 30
28 28 28 29 30 30 30 31 30 31 32 32 33 33 33 33 33 33 33 32 32 32 31 31 31 31 31 30 29 29 29 29 29 29 29 29 30 30 30 29 29 29 29 28
25 26 26 27 28 29 29 29 29 29 30 30 31 31 31 32 32 32 32 31 30 30 30 30 30 29 29 28 28 28 29 29 29 29 29 29 28 28 28 27 28 28 27 27
22 23 24 25 26 26 27 28 28 29 29 29 29 29 29 29 29 29 29 29 28 28 28 28 28 27 27 27 27 27 28 27 27 27 26 26 26 26 26 26 27 27 26 26
20 21 21 21 22 24 24 25 26 25 26 26 26 26 26 26 26 25 25 26 26 27 27 26 25 25 25 24 25 25 25 25 25 24 24 24 24 24 25 25 25 25 25 25
17 18 19 20 20 20 21 22 23 23 23 23 23 24 24 24 24 24 24 24 24 24 23 22 22 23 23 23 23 23 23 23 23 23 24 24 23 23 24 24 24 24 24 25
15 16 16 16 17 17 18 19 19 19 20 20 21 21 21 22 22 22 21 21 20 20 19 20 20 21 21 21 22 22 22 22 23 23 23 23 23 23 24 24 25 25 25 25
12 13 13 13 14 14 14 15 15 16 16 16 17 17 17 17 17 17 17 16 16 17 18 18 19 19 20 20 20 20 21 21 22 22 22 23 23 24 24 25 25 25 25 25
11 11 11 12 12 12 12 12 12 13 14 14 14 14 14 14 14 14 14 14 15 15 16 17 17 18 18 19 19 20 20 21 21 22 23 23 24 24 24 25 25 25 25 26

GEFSNGP_500_meanwind_156.txt.gz
Wind_Speed
30 25 19 19 20 21 23 23 22 19 18 19 19 21 21 19 18 18 17 16 15 15 15 16 16 15 14 14 14 14 13 13 12 12 13 13 13 13 13 14 14 15 15 16
32 30 24 21 19 19 20 22 23 22 20 21 21 23 22 21 20 18 18 17 16 16 15 16 16 16 15 14 14 14 14 14 13 13 14 14 13 13 13 14 14 15 15 16
31 29 29 28 23 21 21 21 21 21 23 23 24 25 23 23 21 20 19 18 17 16 16 16 16 16 16 16 16 15 15 15 15 15 15 14 14 14 14 15 15 16 16 17
31 28 28 27 24 23 22 21 22 24 24 24 26 26 24 23 23 21 20 18 17 17 17 17 17 17 17 16 16 16 17 17 16 16 16 16 16 16 16 16 17 17 17 18
31 28 26 23 24 24 24 25 25 25 25 26 26 26 26 25 24 22 21 20 19 18 18 18 18 17 17 17 17 18 18 18 18 18 18 17 17 17 18 18 19 19 19 20
33 30 26 26 25 25 27 29 29 29 28 27 27 27 27 26 24 22 21 21 20 20 19 19 19 19 19 18 18 19 19 19 19 19 19 19 19 19 19 20 20 20 21 22
35 33 30 28 28 28 29 32 31 30 30 30 30 30 28 27 25 24 23 23 22 22 21 21 21 21 20 20 20 20 20 20 20 20 20 21 21 21 22 22 22 22 22 23
36 36 34 34 33 31 32 30 29 30 30 30 30 29 29 28 27 25 24 24 24 24 23 23 23 23 22 22 22 22 22 22 23 23 23 23 24 24 24 24 24 24 24 25
36 38 39 37 36 35 35 34 33 33 32 32 31 30 30 29 28 27 27 27 26 25 25 25 25 24 24 24 24 25 25 25 25 25 25 25 26 26 26 26 26 26 26 26
36 38 40 40 39 39 38 37 36 35 34 34 33 32 31 31 30 30 29 29 29 28 28 28 27 27 27 27 27 28 27 27 27 27 27 28 28 27 28 28 28 28 28 28
39 39 40 42 41 40 38 38 37 37 36 36 34 34 33 33 32 32 31 31 30 30 30 30 30 30 29 29 30 30 30 29 29 29 30 30 30 29 30 30 30 30 30 30
42 42 42 42 42 41 39 39 38 38 38 37 36 35 35 34 33 33 33 32 32 31 32 31 31 31 31 31 31 31 31 31 31 31 31 32 32 32 32 32 32 32 32 32
41 41 42 42 42 41 41 40 40 39 39 38 38 37 36 35 34 34 34 34 34 34 34 34 33 33 33 33 33 33 33 33 33 33 32 33 33 33 34 34 33 33 33 33
41 41 42 42 42 42 41 41 41 41 41 40 39 39 38 37 36 35 35 35 35 35 35 35 35 35 34 34 35 35 35 35 34 34 34 34 34 34 35 34 33 34 34 35
41 41 41 41 42 42 41 41 41 42 42 41 40 40 39 38 37 37 37 37 36 36 36 36 36 36 36 36 35 36 36 35 34 34 35 35 35 35 35 35 34 34 35 35
39 39 40 40 41 41 41 41 41 42 41 40 40 40 39 38 38 38 38 38 37 37 36 36 36 36 36 36 36 37 36 36 35 35 35 35 35 35 34 35 34 34 35 35
37 38 39 39 39 39 39 40 40 40 39 39 39 39 39 38 38 39 38 38 37 37 37 37 36 36 36 36 37 36 36 37 37 37 36 36 36 35 35 35 35 35 35 35
35 36 37 37 37 38 38 38 38 39 38 38 38 38 39 39 39 39 39 38 38 38 38 37 37 37 36 36 36 36 37 37 36 36 36 35 35 35 35 35 35 35 34 34
33 34 34 35 35 36 36 36 37 37 38 37 37 37 36 36 37 38 38 38 37 37 37 36 36 36 36 36 37 36 36 36 35 35 35 34 35 35 35 35 34 34 33 33
31 32 32 32 33 34 35 35 35 35 35 35 35 35 35 35 36 37 37 37 36 36 35 35 35 35 35 35 35 34 34 34 34 34 35 35 34 34 33 32 32 32 32 32
28 29 30 30 30 31 32 32 33 33 33 33 33 34 34 34 35 36 36 37 36 35 35 34 34 34 34 34 34 34 33 33 34 34 33 33 33 32 31 31 31 31 31 31
25 26 27 28 28 29 29 29 30 31 32 32 32 32 33 33 33 33 33 33 33 34 34 34 33 33 33 33 33 33 33 33 33 33 32 32 31 31 31 31 30 31 30 29
23 24 24 25 26 27 27 28 28 29 29 29 29 30 30 31 30 29 30 30 31 31 32 31 31 31 31 31 31 32 32 32 31 30 30 30 29 29 29 29 29 28 28 28
19 20 22 22 23 23 23 24 25 25 25 25 25 25 25 26 26 27 27 27 27 28 28 28 29 29 29 29 30 30 30 29 28 28 27 27 27 28 27 27 27 27 27 28
15 16 16 17 18 18 19 19 20 20 21 21 22 22 23 23 23 23 23 24 24 24 25 25 25 25 26 26 26 26 26 26 26 26 26 26 26 26 26 27 27 27 28 28
11 12 14 14 15 15 16 16 16 17 17 18 18 18 19 20 21 21 22 22 22 23 23 22 23 23 23 23 23 23 23 24 24 24 24 25 25 25 26 26 27 28 28 28
9 9 10 11 12 12 12 12 13 13 14 14 14 15 16 16 17 18 18 19 19 19 20 20 20 20 21 21 21 21 22 22 23 23 24 24 25 25 26 27 28 28 29 29

GEFSNGP_500_meanwind_162.txt.gz
Wind_Speed
32 31 31 29 26 24 22 22 23 23 23 23 22 22 22 21 19 17 16 16 15 14 13 13 12 11 12 12 11 11 11 12 11 10 10 10 10 11 11 11 11 11 12 13
33 33 34 33 30 26 24 23 24 24 24 25 25 25 23 23 21 19 17 17 17 16 14 15 13 13 13 13 12 12 12 12 11 10 10 11 11 11 12 12 12 12 12 13
34 33 34 35 32 29 27 25 24 24 23 25 26 26 26 25 23 22 20 18 17 17 16 16 15 14 14 14 13 13 13 13 11 11 11 12 11 12 12 12 13 13 13 14
35 34 36 33 32 31 29 27 25 23 24 25 26 27 27 26 24 23 21 19 18 18 17 16 15 14 14 15 14 14 14 13 13 12 13 13 13 13 14 14 14 14 14 15
36 36 35 34 34 34 32 30 28 27 27 27 28 28 28 27 24 24 23 22 20 19 18 17 16 16 16 15 15 15 15 15 14 14 14 14 15 15 15 15 15 15 16 16
37 36 36 35 34 35 35 34 32 30 29 30 29 29 29 28 27 25 24 23 21 20 19 19 18 18 18 18 17 17 17 17 16 16 16 16 17 17 17 16 16 17 17 18
38 37 36 36 37 37 37 37 35 32 31 31 31 31 30 29 28 27 26 24 22 21 21 21 20 20 20 20 19 18 18 18 18 18 18 18 18 18 18 18 19 19 19 19
40 39 38 36 37 38 39 37 35 34 33 34 33 33 31 30 29 28 26 25 24 24 23 22 21 21 21 21 21 20 20 20 20 20 20 20 20 20 20 20 21 21 21 22
41 40 38 37 38 39 40 39 37 35 34 34 34 34 32 30 29 28 27 26 25 25 25 24 24 23 23 23 23 23 23 22 22 22 21 21 21 22 22 22 22 22 23 24
42 40 39 38 39 39 41 41 40 39 37 37 36 35 34 32 30 29 29 29 28 27 27 27 26 26 26 25 25 25 24 24 24 23 23 23 23 24 25 25 24 25 26 26
41 40 39 38 39 40 40 41 41 41 39 38 36 36 36 35 34 33 33 32 31 30 29 28 28 28 28 28 27 26 25 25 26 26 25 25 25 26 26 27 27 27 27 28
39 38 38 39 38 38 39 40 40 40 40 39 37 37 38 37 36 36 35 34 32 31 31 30 30 30 30 29 29 28 28 28 28 27 27 27 27 28 29 30 30 30 30 30
40 39 39 39 38 37 37 38 39 39 39 39 39 39 39 39 38 38 37 35 34 33 32 32 32 31 31 31 31 30 30 30 30 30 30 30 29 29 30 31 31 32 33 33
39 39 38 37 37 37 37 36 37 38 39 39 40 40 40 40 40 39 38 37 36 35 34 34 33 32 32 32 32 31 30 30 31 31 32 32 31 32 32 33 33 34 34 34
39 39 38 38 37 37 36 36 36 37 38 38 40 40 41 41 40 40 39 38 37 36 35 35 35 34 34 34 33 32 32 32 32 33 32 33 33 34 34 35 35 35 35 34
40 38 37 37 37 36 36 36 37 37 37 38 39 40 40 40 40 40 40 40 39 37 37 36 36 35 35 35 34 34 33 32 33 33 32 33 34 34 35 35 35 34 34 34
38 37 37 37 37 36 36 35 36 37 37 38 39 39 39 40 40 40 40 40 39 38 38 37 36 36 36 35 35 34 34 34 34 33 33 34 34 34 34 34 35 35 35 35
34 34 35 36 36 35 35 35 36 37 37 37 38 39 39 39 39 38 38 38 38 38 38 37 36 35 35 34 34 34 35 35 34 35 35 35 35 35 35 36 36 35 35 34
33 34 34 34 34 35 35 35 35 36 36 36 36 36 36 35 35 36 36 36 36 36 36 35 35 35 35 35 35 35 35 35 34 34 34 35 35 35 35 36 35 34 33 33
31 32 33 33 33 33 34 34 34 34 35 35 34 34 34 33 34 34 34 34 35 34 34 34 35 36 36 36 36 36 36 35 35 34 34 34 35 35 35 35 34 33 33 33
29 30 31 31 31 31 32 32 32 32 32 32 32 31 31 31 32 32 32 32 33 33 33 34 34 35 35 35 35 35 35 35 35 35 35 35 35 35 34 34 33 33 33 32
26 27 28 28 28 28 29 29 29 29 29 29 29 30 31 31 32 31 30 30 30 31 32 32 33 33 33 33 33 33 33 33 33 34 33 33 33 33 32 32 32 32 31 30
23 24 25 25 25 25 25 26 26 27 27 27 28 28 28 29 29 28 28 28 28 28 28 28 29 30 31 31 31 31 31 31 32 32 31 31 30 30 30 30 30 29 29 29
18 20 21 22 23 23 23 23 23 24 25 25 26 26 26 26 26 25 25 26 26 26 25 25 25 26 26 26 27 28 29 29 30 30 29 29 28 28 28 28 28 28 28 28
15 15 17 18 18 19 19 20 20 21 21 22 22 22 22 22 22 22 22 22 23 23 23 23 23 24 24 25 25 26 26 26 27 27 26 26 27 27 27 27 27 27 27 26
11 11 12 13 15 15 16 16 17 17 18 18 19 18 18 19 20 20 20 21 21 21 21 22 22 22 22 22 23 23 24 24 24 24 25 25 25 25 25 26 26 26 26 26
8 9 10 11 11 12 12 13 13 14 14 14 15 15 16 16 16 16 16 17 17 18 19 20 20 21 21 21 21 22 22 22 22 22 22 23 24 25 25 26 26 25 26 26

GEFSNGP_500_meanwind_168.txt.gz
Wind_Speed
33 31 31 31 30 29 29 27 26 24 23 21 20 19 19 18 17 16 16 17 17 17 17 15 14 13 13 12 11 11 10 10 11 11 12 12 12 12 12 12 13 13 14 14
34 33 32 32 32 32 31 29 27 26 23 21 21 20 19 18 18 17 17 17 18 17 16 15 15 14 13 13 12 12 12 12 12 12 12 13 13 13 13 13 13 14 15 15
35 33 33 34 33 33 33 31 29 27 25 23 21 20 19 19 18 18 17 18 18 17 17 17 16 15 14 14 13 14 13 13 13 13 13 14 14 14 14 14 15 16 16 17
34 34 35 34 33 33 34 33 32 30 27 25 23 21 20 19 19 19 19 19 19 19 19 19 18 17 16 15 15 16 16 15 15 16 15 15 15 15 15 16 16 17 18 17
36 36 37 36 34 33 33 33 32 31 29 27 25 24 22 20 20 20 21 22 22 22 22 21 19 19 18 18 17 18 18 17 16 17 17 17 17 17 17 17 17 17 17 17
37 37 38 36 35 34 34 34 32 31 30 29 27 26 23 22 22 22 22 23 23 23 23 21 20 21 20 19 19 20 19 18 18 18 18 19 19 19 18 18 18 18 18 17
39 38 38 36 35 34 35 34 33 32 31 30 29 27 26 25 25 24 23 23 23 23 23 22 22 22 21 21 21 20 20 20 20 20 20 20 20 20 19 19 19 19 19 18
40 40 39 37 35 35 35 34 34 32 31 30 29 29 28 27 27 26 26 26 25 24 24 23 23 23 22 22 22 22 21 21 21 21 21 20 20 20 20 20 20 20 20 20
42 41 40 38 37 36 35 34 34 33 32 31 30 30 29 29 30 30 29 28 27 27 26 26 25 24 24 24 24 25 24 23 23 22 22 21 21 21 21 22 22 22 22 22
42 42 41 39 38 36 35 35 35 34 33 32 32 32 32 32 32 33 32 30 29 30 29 28 28 27 27 27 27 26 26 25 25 24 24 24 24 23 23 24 24 24 24 24
42 42 41 40 39 37 36 35 35 35 35 35 34 34 33 34 34 35 33 33 31 30 30 30 30 29 29 28 28 28 27 27 26 26 25 25 25 25 25 26 25 26 26 27
42 42 42 41 40 39 37 36 35 35 36 36 36 36 34 34 36 37 36 35 33 32 32 31 31 31 31 30 30 30 29 28 28 27 27 27 27 27 27 27 27 27 28 28
41 41 41 41 40 40 39 37 36 36 36 37 38 38 38 37 37 37 37 36 35 34 34 34 33 33 33 32 31 31 30 30 29 29 29 29 28 28 28 28 28 29 29 30
40 40 40 40 39 38 39 38 38 37 38 38 39 39 39 39 39 39 39 38 38 37 36 36 35 34 34 33 33 32 32 31 31 31 30 30 29 29 29 30 30 31 31 32
39 40 39 38 38 38 38 38 38 38 38 38 38 37 38 39 39 39 39 38 38 38 37 37 36 36 36 35 34 34 33 33 33 32 31 31 30 31 31 31 31 31 32 33
38 38 38 38 37 37 37 37 37 38 38 38 38 39 38 38 38 38 37 37 37 37 37 37 37 37 36 36 35 34 33 33 33 33 32 32 32 32 32 33 33 33 34 34
36 37 37 37 37 36 35 35 35 35 36 37 37 38 38 37 37 37 37 37 38 37 37 37 37 37 36 36 35 34 34 34 34 34 34 34 34 34 34 34 35 35 35 35
34 34 35 35 35 35 34 34 34 34 34 35 36 36 37 37 37 37 36 37 37 37 37 38 38 37 36 35 35 35 35 34 35 35 35 35 36 36 36 36 36 36 36 36
32 32 33 33 33 34 33 33 33 33 33 33 33 33 34 35 35 35 35 36 36 36 36 37 36 35 35 35 35 35 36 36 36 36 36 36 36 36 36 36 37 37 36 36
28 29 30 31 31 31 31 32 33 33 33 33 33 33 33 33 34 34 34 34 34 35 35 35 35 35 34 35 35 35 35 35 35 36 36 36 36 36 36 37 38 36 35 35
25 26 27 28 29 29 30 31 31 32 32 32 32 32 32 32 33 33 33 33 33 34 34 34 34 34 34 34 35 35 35 35 35 35 34 35 36 35 35 36 35 34 33 33
23 24 25 26 27 28 28 29 29 29 30 30 31 31 31 31 31 31 32 32 32 32 32 32 32 32 32 32 31 32 33 34 34 33 33 34 34 34 34 34 33 32 32 32
22 23 23 24 25 25 26 26 26 26 27 28 28 28 29 29 29 29 29 30 30 30 31 31 31 31 31 31 31 31 31 31 31 31 31 31 32 32 32 32 31 31 31 31
20 21 22 22 23 23 24 24 24 24 24 24 24 25 25 25 25 26 27 28 28 28 29 29 29 29 29 29 28 28 28 28 28 28 29 30 30 30 30 30 30 30 30 30
16 17 18 19 19 20 20 21 21 21 21 21 21 22 22 23 23 24 24 25 26 26 27 27 26 26 26 25 25 25 25 26 26 27 27 27 26 27 27 28 28 29 29 30
14 14 15 15 16 17 17 18 19 19 19 19 19 20 21 21 21 22 23 23 23 24 23 23 23 23 23 23 23 23 24 24 25 25 25 25 25 26 26 27 27 27 28 28
11 11 12 12 13 13 14 15 15 16 17 17 18 18 19 19 19 19 19 19 19 19 19 20 20 21 21 21 21 22 22 23 23 23 24 24 25 25 26 26 26 27 27 28

GEFSNGP_500_meanwind_174.txt.gz
Wind_Speed
31 30 30 29 29 28 27 25 23 21 20 19 17 16 16 16 15 15 15 15 15 15 15 14 13 14 14 12 11 11 11 11 12 12 13 13 14 14 14 14 14 15 16 16
33 33 31 31 31 30 29 27 26 24 23 21 19 18 17 16 16 16 16 15 15 15 16 15 15 15 15 14 13 12 12 12 13 14 15 15 15 15 16 16 16 16 16 16
33 33 33 34 32 32 30 29 28 27 25 23 22 20 18 17 16 16 17 17 17 17 17 17 16 16 16 16 15 14 13 14 14 15 16 17 17 17 17 17 17 17 17 18
33 34 34 33 33 32 31 30 29 28 27 26 24 23 22 20 19 18 18 19 19 18 18 18 18 18 18 17 16 16 15 15 16 17 18 18 18 19 19 18 19 19 18 18
33 33 34 35 34 32 31 31 30 29 28 27 26 25 24 22 21 20 20 20 20 19 19 19 19 19 18 18 18 17 17 18 19 19 19 19 20 20 20 20 20 20 20 19
34 32 32 34 34 32 32 32 32 30 29 27 26 26 26 25 24 23 23 22 22 21 20 20 20 20 20 20 20 19 20 20 20 20 20 21 21 21 21 20 20 21 21 21
33 32 32 34 33 32 32 32 31 30 30 29 28 28 27 26 26 25 25 25 25 24 23 22 22 22 21 21 21 22 22 22 22 21 22 21 21 22 22 22 22 22 23 23
33 32 34 35 33 33 33 32 31 30 30 30 29 29 28 28 27 27 27 27 27 26 25 24 24 24 23 23 23 23 23 23 22 22 22 22 22 23 23 23 23 24 24 24
35 35 35 34 34 34 33 32 32 31 31 31 30 29 29 29 29 29 29 29 29 29 28 27 26 26 25 24 24 23 23 23 23 23 24 23 24 24 24 24 24 24 25 25
37 37 36 35 35 35 34 34 33 32 31 31 30 30 30 30 30 29 30 30 31 31 30 30 29 29 28 28 26 26 26 25 25 25 25 25 25 25 25 25 25 25 26 26
38 38 38 37 36 36 36 35 34 34 32 31 30 30 30 30 30 31 31 32 32 32 32 32 30 30 30 29 29 28 28 28 28 28 27 27 27 27 27 27 27 27 27 27
37 38 38 38 37 37 37 36 36 35 34 33 32 31 31 30 30 30 31 32 32 32 32 32 32 32 31 31 31 31 31 30 30 29 28 28 28 28 28 29 29 29 28 28
36 37 38 38 38 37 37 37 37 36 35 34 33 33 32 32 31 31 32 32 33 33 33 33 33 33 33 33 33 33 32 32 31 31 31 31 30 30 30 30 30 30 31 31
37 37 37 37 37 37 37 36 37 37 37 35 34 34 34 34 34 34 34 34 34 34 34 35 35 35 34 34 34 34 34 33 33 33 33 32 32 32 32 32 32 32 32 33
37 37 37 36 36 37 36 36 36 36 36 36 35 35 34 34 34 35 35 34 35 35 36 36 36 36 35 35 35 35 35 34 34 34 34 33 33 33 33 33 33 33 34 34
36 36 36 36 36 36 36 36 36 36 36 36 35 35 34 34 35 35 35 35 35 35 36 36 36 36 36 35 36 36 36 34 34 34 34 34 34 34 34 34 34 34 35 35
34 35 34 34 34 34 34 35 35 35 35 35 35 35 35 35 36 37 37 37 36 36 35 35 35 35 35 36 36 36 36 35 35 36 36 35 35 35 35 35 36 36 36 36
32 33 33 33 33 33 33 33 34 34 35 35 34 34 35 35 34 36 37 37 36 36 35 35 35 36 36 37 37 37 36 36 36 37 37 36 35 35 36 36 35 36 36 37
28 30 30 31 31 32 32 32 32 32 32 32 32 32 33 33 34 34 34 35 35 35 35 35 36 36 36 35 35 36 35 35 35 36 36 36 36 36 36 36 37 38 38 37
25 26 27 27 28 29 29 29 30 30 30 31 31 32 32 33 33 33 34 34 34 35 35 35 35 35 35 35 34 34 34 34 35 36 36 36 36 36 36 37 37 38 37 37
25 25 25 25 25 26 27 28 29 29 29 30 30 30 31 31 31 32 32 33 33 34 34 34 34 34 34 35 35 35 34 35 36 35 34 34 35 35 35 35 36 36 36 36
23 23 24 24 24 24 25 26 26 26 27 27 28 29 29 30 30 30 30 30 31 31 31 32 32 33 33 33 33 33 34 34 35 35 34 34 34 34 34 34 34 35 35 35
21 21 22 22 22 22 23 23 24 25 25 26 26 26 27 27 28 28 28 28 29 29 29 30 30 30 30 31 31 31 32 32 33 33 33 33 32 32 32 32 32 32 33 33
19 19 20 20 20 21 22 22 23 23 24 24 25 25 25 25 26 26 26 26 27 27 27 27 28 28 29 29 29 29 30 30 30 30 30 30 30 30 30 31 31 31 32 32
16 16 17 18 19 20 21 21 21 22 22 22 23 23 22 22 23 23 23 23 24 24 24 24 25 25 26 27 27 27 28 28 27 27 27 28 28 29 29 30 30 30 30 31
13 13 14 15 16 17 17 18 18 19 19 19 19 20 20 20 20 20 21 22 22 22 23 23 24 25 25 25 25 25 25 25 25 26 26 27 27 27 28 28 28 28 28 29
10 11 11 12 12 13 14 14 14 15 16 16 17 18 18 18 19 19 20 21 21 22 22 23 23 24 24 24 24 24 24 24 23 23 24 24 24 25 25 26 26 27 27 27

GEFSNGP_500_meanwind_180.txt.gz
Wind_Speed
32 27 24 23 23 23 25 25 24 23 24 23 21 21 21 19 19 19 18 16 16 16 17 16 16 17 17 18 17 16 16 16 15 15 16 16 15 16 16 17 16 16 15 15
36 32 28 26 24 24 25 25 25 25 25 23 23 24 23 22 22 20 20 18 18 17 17 17 17 17 18 18 18 17 17 17 17 17 17 17 17 17 17 17 17 17 17 18
37 33 31 31 27 26 25 25 26 27 28 26 26 25 25 24 23 23 22 21 20 19 18 18 18 18 19 19 19 19 19 19 19 19 19 19 19 19 19 19 20 20 20 20
35 33 34 34 29 27 26 28 29 31 32 32 30 29 27 27 27 26 24 24 22 21 20 20 20 20 21 20 20 21 21 21 21 21 21 21 21 22 22 22 22 22 22 22
35 34 35 34 32 30 29 31 31 32 33 33 32 31 32 30 29 28 26 26 25 24 23 22 22 22 22 22 22 22 22 22 22 23 23 23 23 24 24 24 24 23 22 23
35 34 34 32 31 30 29 33 34 33 35 35 32 32 32 31 30 29 28 27 26 26 25 24 24 24 24 24 23 23 23 23 24 24 24 25 24 24 23 24 23 23 22 23
36 36 36 33 31 31 33 35 34 34 34 34 34 34 34 32 31 30 28 28 27 28 28 27 27 27 26 25 25 25 25 25 25 25 25 25 24 24 23 23 23 23 23 24
36 37 36 33 30 32 34 33 34 34 34 34 34 34 33 33 32 32 30 30 30 29 29 29 29 29 28 28 27 27 27 26 27 26 26 25 26 25 24 24 24 25 25 25
36 37 37 35 35 34 34 34 33 34 35 35 34 33 33 33 33 32 32 32 32 32 31 31 31 31 31 31 30 29 28 28 28 28 27 27 26 26 26 26 26 26 26 26
37 37 38 37 37 38 37 36 36 35 35 35 35 35 34 33 33 33 34 34 34 34 34 33 33 32 32 32 32 32 31 31 30 30 29 29 28 28 28 28 28 27 27 27
40 39 39 38 40 40 38 37 37 36 37 37 36 35 35 35 35 34 35 35 34 35 35 34 35 34 33 32 32 32 32 32 33 32 31 30 30 31 30 29 28 29 29 29
41 41 40 40 39 39 40 39 39 38 37 38 37 37 36 36 36 36 35 35 34 34 34 34 34 35 35 35 35 34 34 34 34 33 32 32 32 32 32 31 30 30 31 31
37 38 40 41 41 41 40 40 40 40 39 39 39 38 38 38 38 37 36 36 35 35 35 34 34 35 35 35 36 36 35 35 35 34 34 34 34 33 33 33 32 31 31 32
35 35 37 39 39 39 38 38 39 39 38 39 38 39 38 39 39 38 37 37 37 36 36 36 36 36 36 36 35 36 36 36 35 35 35 36 36 35 35 34 32 32 33 33
36 35 36 37 39 39 39 39 39 39 39 39 39 39 39 39 39 39 38 38 37 37 37 36 36 36 36 36 35 36 36 36 36 37 36 36 35 35 35 34 34 34 35 35
34 35 34 35 37 37 38 38 38 38 38 38 38 38 38 38 38 38 38 38 38 37 36 36 36 36 36 36 37 37 37 37 38 38 37 37 36 35 35 35 35 35 36 36
32 34 36 36 36 37 38 38 38 37 38 39 38 38 38 38 38 38 38 37 37 36 36 36 36 36 36 37 37 37 37 38 38 37 37 37 36 36 36 36 35 35 36 36
29 31 32 34 35 36 37 37 38 38 38 38 37 36 36 36 37 37 37 36 36 36 36 36 36 36 36 36 36 36 36 37 37 37 36 36 36 36 36 36 35 36 36 36
29 31 33 34 35 35 35 36 36 36 36 36 36 35 35 35 35 35 35 34 34 35 35 35 34 35 35 36 36 36 36 36 36 37 37 37 37 37 37 37 37 37 37 37
27 28 29 31 31 32 33 34 35 34 34 34 33 34 34 34 34 34 34 34 34 34 35 34 34 34 35 36 36 36 36 36 37 37 38 38 37 37 37 37 38 38 38 38
26 27 28 28 29 29 30 31 31 32 32 32 32 32 32 32 32 32 32 33 32 32 33 34 34 35 35 35 35 36 36 36 37 37 37 37 37 37 38 38 38 38 38 38
24 24 24 25 27 27 28 28 29 30 31 31 30 30 31 31 31 31 31 31 32 32 32 33 34 34 34 34 34 35 35 36 36 36 36 37 37 37 37 37 37 37 37 36
21 22 23 23 23 24 25 25 26 27 28 28 28 29 30 30 29 30 30 30 31 31 31 31 32 32 32 33 33 34 35 35 35 35 35 36 36 36 36 35 35 35 35 35
18 19 20 20 20 21 22 23 23 24 25 25 26 26 27 27 27 27 28 28 29 29 29 30 30 31 31 32 32 32 33 34 34 34 34 34 33 33 33 33 33 33 33 33
15 15 16 17 18 19 20 21 21 22 23 23 23 23 23 23 24 25 25 26 27 27 28 28 28 29 29 30 30 31 31 31 31 32 32 31 31 32 32 32 32 32 31 31
13 14 14 15 16 17 17 18 19 20 20 20 21 21 21 21 22 23 23 24 25 26 26 27 27 28 28 28 29 29 29 29 29 29 29 29 29 30 30 30 29 30 30 30
11 12 13 13 14 14 15 15 16 17 17 18 18 18 19 20 21 21 21 23 24 24 24 25 25 26 26 27 27 27 27 27 27 28 28 28 28 28 28 28 28 29 29 30

GEFSNGP_500_meanwind_186.txt.gz
Wind_Speed
32 31 30 29 29 28 28 28 29 29 29 26 24 22 20 19 17 17 16 14 14 13 13 13 14 13 13 14 13 13 13 12 12 13 13 13 13 14 14 14 14 14 15 16
34 33 33 31 30 30 31 30 30 30 30 27 25 25 24 22 21 19 18 17 16 15 15 15 14 15 15 15 15 15 15 15 14 14 15 15 15 15 16 16 16 17 17 17
36 35 35 35 33 33 33 33 32 32 31 29 28 26 26 25 24 22 19 19 19 19 19 18 17 16 16 16 16 16 16 16 16 17 17 17 17 17 17 17 18 18 19 20
37 36 38 36 33 34 35 34 33 33 32 31 30 29 28 27 27 24 23 22 22 22 22 21 20 19 18 18 18 18 18 18 18 18 18 18 18 18 19 19 20 20 21 21
39 39 38 36 35 36 36 36 35 35 33 32 32 33 32 29 28 27 27 26 25 24 24 24 22 21 21 20 21 20 20 20 20 20 20 19 19 20 20 21 22 22 22 22
40 40 40 37 36 37 38 38 37 36 36 34 35 35 32 30 30 30 29 28 27 26 27 26 24 23 23 22 23 23 22 22 22 22 22 21 21 21 21 23 23 23 24 23
39 40 40 37 36 36 38 39 37 38 38 37 36 35 34 33 33 32 32 31 29 28 28 27 27 26 25 24 24 25 25 25 24 24 24 23 23 23 23 24 24 24 25 24
40 40 39 38 37 37 38 38 38 38 39 38 36 35 36 35 34 34 34 33 32 31 29 29 29 28 28 27 27 27 27 27 26 26 26 25 25 25 25 25 26 25 25 25
40 40 39 38 38 38 38 38 37 38 38 38 37 36 37 36 35 35 35 34 34 33 31 30 30 30 30 30 29 29 29 29 28 28 28 27 27 27 27 27 27 26 25 25
40 39 39 39 38 39 38 38 38 38 36 35 36 35 36 36 36 36 36 35 35 34 34 33 32 32 32 32 31 31 31 31 30 30 29 28 29 29 28 28 28 27 26 26
40 40 40 40 39 39 38 38 38 39 38 36 35 36 36 36 35 36 36 36 36 35 34 34 34 33 33 33 32 32 33 32 32 32 30 29 29 29 29 28 27 27 28 28
39 40 41 40 40 39 39 39 39 39 40 38 36 37 36 37 36 36 36 35 35 35 35 35 34 34 34 33 34 34 34 34 33 32 32 31 31 30 30 30 29 29 29 30
40 40 41 41 39 38 38 38 38 38 38 37 36 37 38 37 37 36 36 36 35 36 36 35 35 35 35 35 35 35 35 35 34 34 33 32 32 31 31 31 31 31 31 32
40 39 39 39 37 37 37 37 37 37 36 37 37 37 38 38 38 37 36 36 36 36 36 36 36 36 36 35 35 36 36 36 36 36 35 34 33 33 32 32 32 32 33 33
36 37 36 37 37 37 37 36 37 38 37 35 36 37 37 37 37 37 37 37 37 37 37 37 37 36 36 36 36 36 36 36 36 36 36 35 34 34 34 34 33 33 34 34
32 34 35 34 35 36 37 37 38 37 36 34 33 34 36 36 36 35 36 36 36 36 36 36 36 37 37 37 36 36 36 36 36 36 36 36 36 35 35 35 35 35 34 34
29 30 31 31 32 34 35 36 35 35 34 32 32 32 33 34 35 34 35 35 35 35 36 36 36 36 36 36 36 36 36 35 36 36 35 34 35 36 35 35 35 36 36 35
27 27 28 28 29 30 32 31 32 34 35 34 30 30 31 32 33 33 32 33 34 35 35 35 35 35 36 36 36 36 34 34 33 33 33 33 33 35 35 34 33 34 34 35
24 25 26 26 26 26 27 28 29 31 33 33 31 31 31 31 32 33 33 32 32 33 34 34 34 34 34 34 34 34 34 34 33 33 33 33 35 35 35 35 34 33 33 33
20 20 22 24 24 25 25 25 26 28 30 31 30 30 31 30 31 30 30 31 32 33 33 33 33 32 32 33 33 33 33 33 33 33 33 34 33 33 34 33 32 32 33 33
18 18 18 20 21 22 23 23 24 26 27 28 29 28 29 29 30 30 30 30 30 30 31 31 31 31 32 32 32 32 32 33 33 33 33 33 34 34 34 34 33 33 33 33
16 17 16 17 18 18 19 21 22 24 25 26 26 25 26 27 28 28 28 28 29 29 29 29 30 30 31 31 31 31 31 32 32 32 33 34 34 34 34 34 33 33 33 33
14 15 17 17 18 18 18 19 20 21 22 23 23 24 24 24 25 25 25 26 27 27 27 28 28 28 28 29 29 30 31 32 32 31 32 32 32 32 32 32 32 32 32 31
15 14 15 15 16 16 16 17 18 19 19 20 20 21 22 22 22 23 24 24 24 24 24 24 25 25 26 27 28 28 29 28 28 28 29 30 30 30 30 31 31 31 30 30
12 13 13 14 14 14 15 15 15 16 17 18 19 20 20 21 22 22 22 22 22 22 22 23 24 24 25 26 26 27 27 27 27 27 28 29 29 30 30 30 29 29 29 29
10 10 11 11 12 13 13 13 14 14 14 15 16 17 17 17 18 19 19 20 21 21 22 22 23 23 23 23 24 25 26 26 27 27 27 27 28 28 28 28 27 28 28 28
7 8 9 9 10 10 10 11 11 11 11 12 13 14 15 15 16 17 17 17 18 19 20 21 21 21 21 21 22 22 23 24 24 25 25 25 25 25 26 27 27 27 27 28

GEFSNGP_500_meanwind_192.txt.gz
Wind_Speed
30 30 32 32 32 32 31 31 31 29 28 26 24 23 22 22 21 20 19 18 17 17 17 16 15 15 15 15 15 15 15 14 14 14 15 15 15 15 15 16 16 16 16 17
32 32 32 33 33 33 32 32 31 30 29 27 27 25 24 23 22 21 20 20 19 18 18 17 16 16 16 16 16 16 16 16 16 17 18 18 17 17 18 18 18 18 18 19
34 33 32 33 33 33 33 33 33 32 31 30 29 28 27 26 25 23 22 22 21 21 19 19 17 17 17 17 18 18 19 19 19 19 20 20 20 20 20 19 19 19 19 20
36 35 36 34 34 33 33 33 34 34 33 32 31 29 28 27 27 25 23 22 22 22 21 20 20 20 20 20 20 20 21 22 21 22 22 22 23 23 22 20 20 20 21 22
38 38 37 36 35 35 34 34 34 34 34 34 33 31 30 28 27 27 26 25 24 24 24 23 23 22 22 22 22 23 23 23 23 24 24 24 24 24 23 21 21 22 23 23
40 40 40 38 37 36 36 37 35 35 35 34 34 33 31 30 29 29 28 27 27 27 26 25 25 24 24 25 25 25 24 24 24 24 24 24 24 23 23 23 23 24 25 25
42 41 40 39 38 37 37 37 36 36 36 36 36 35 33 32 31 30 30 29 29 29 29 28 28 27 26 26 26 27 26 26 25 25 24 24 24 24 24 25 25 25 26 27
42 42 42 39 38 38 37 36 36 36 37 37 37 37 35 34 32 31 31 31 30 30 30 30 30 29 29 29 28 29 29 28 27 26 26 25 25 25 26 26 27 27 27 27
42 42 41 40 39 38 38 37 37 36 37 37 37 37 36 36 35 34 33 33 33 33 31 31 32 32 31 31 32 31 31 30 29 28 28 28 27 27 27 27 28 28 28 29
40 41 40 39 39 39 39 38 38 38 38 38 38 37 37 36 36 36 36 35 34 34 33 33 32 33 32 31 31 32 32 32 32 30 29 29 28 28 28 29 29 29 29 29
38 39 39 39 39 39 39 39 39 38 38 38 38 38 38 37 37 37 36 35 35 34 34 32 32 33 33 32 33 33 33 33 32 31 29 29 29 29 30 30 30 30 30 30
38 38 39 39 39 40 40 40 40 40 39 38 39 38 38 39 38 37 37 36 36 35 35 33 32 32 33 34 34 33 33 33 32 30 29 30 30 31 31 32 32 32 32 32
38 38 39 40 40 40 41 40 40 39 39 38 37 37 38 38 38 37 36 35 35 36 36 34 34 33 34 34 34 34 34 34 33 32 31 31 32 32 33 33 34 34 34 34
37 37 37 38 39 39 39 39 38 38 38 37 37 37 37 37 37 37 36 36 36 36 36 34 34 34 34 34 34 34 34 34 34 33 33 33 33 33 34 35 35 35 36 36
34 35 35 36 37 37 37 37 37 36 36 37 37 37 36 37 37 37 36 36 36 35 34 34 33 33 33 33 33 34 34 34 34 34 34 33 33 34 34 34 35 35 35 36
31 32 33 34 34 35 35 34 34 34 34 35 35 36 36 37 37 36 35 35 35 35 36 34 33 33 33 34 34 34 34 34 34 34 34 34 34 34 34 34 35 35 35 35
29 30 30 31 32 32 32 32 32 32 32 32 32 33 35 35 35 35 35 34 33 34 35 34 32 33 34 33 33 34 36 36 35 35 34 34 35 34 34 34 34 34 34 34
28 28 27 28 28 28 29 29 29 30 31 32 32 32 32 33 33 33 33 32 31 32 31 31 32 32 33 33 33 33 34 35 35 35 35 35 35 34 34 34 34 34 33 33
23 24 24 24 24 24 24 26 28 28 28 28 28 28 28 29 29 30 31 32 33 32 30 31 32 32 33 33 33 33 33 33 34 34 34 34 33 33 33 33 34 34 33 34
20 20 21 21 21 22 23 24 25 25 25 24 25 26 27 28 28 28 28 29 29 29 30 31 32 32 31 31 32 32 32 33 33 33 33 33 33 33 33 33 33 33 33 33
18 17 17 18 18 19 21 21 21 22 23 23 23 23 24 24 25 25 25 26 27 28 28 29 30 30 30 30 30 31 32 32 32 32 32 33 33 33 33 33 33 33 33 33
15 15 16 16 16 16 17 18 19 19 20 21 21 21 21 21 22 22 23 23 24 24 25 25 26 26 27 28 29 30 30 30 31 31 31 32 32 32 32 32 33 33 33 33
14 14 14 14 14 15 15 16 16 17 18 19 19 19 19 19 20 20 21 22 22 22 23 23 24 25 26 27 28 29 29 29 30 30 30 30 31 31 32 32 32 33 33 33
12 12 12 13 13 13 14 15 15 16 17 17 17 17 17 17 18 19 20 22 23 23 23 23 23 24 25 26 27 27 28 28 29 29 28 29 29 30 30 30 31 31 31 31
9 9 9 10 10 11 11 11 12 13 13 13 14 14 14 15 15 17 18 19 19 20 21 22 22 23 24 25 25 25 26 27 27 27 27 28 28 28 28 28 29 30 30 30
8 8 7 7 8 8 9 9 10 10 10 10 11 12 13 14 15 15 16 17 17 18 19 20 20 21 22 23 23 24 25 25 25 25 25 25 26 26 27 27 27 27 28 29
7 7 6 6 6 6 6 7 8 9 9 10 10 11 11 12 13 14 15 15 16 17 18 19 19 20 21 22 22 23 22 22 22 23 23 24 24 25 25 25 25 26 27 28

GEFSNGP_500_meanwind_198.txt.gz
Wind_Speed
30 29 29 29 30 30 30 29 28 26 26 25 24 23 22 22 21 21 21 21 20 20 20 20 20 19 19 18 18 18 18 18 17 16 16 15 15 15 16 16 17 17 17 18
30 29 29 29 29 30 30 30 30 29 28 26 25 25 24 23 23 22 23 22 22 22 22 22 22 21 21 19 19 18 19 19 19 18 18 18 17 18 18 18 18 18 19 19
29 30 29 30 30 30 30 30 29 29 29 27 27 26 26 25 24 24 23 23 23 23 23 23 23 23 22 20 20 20 20 20 20 19 20 20 20 20 20 20 19 20 20 20
29 30 30 31 30 30 31 31 30 30 29 28 27 27 26 26 26 25 24 24 25 25 24 24 25 24 24 22 22 22 22 22 22 21 21 22 22 22 23 23 22 21 21 21
31 30 31 32 30 29 30 31 30 30 29 29 28 28 28 28 28 28 27 26 27 27 27 26 26 26 26 25 25 24 24 24 25 25 24 25 24 23 24 24 23 23 23 24
33 31 31 33 31 30 29 32 31 31 31 30 30 30 30 30 30 30 29 29 29 30 29 29 29 29 28 28 28 28 28 28 26 26 27 26 25 25 25 25 26 25 25 25
33 33 33 35 33 32 32 33 32 32 32 32 32 32 32 31 31 31 31 31 31 31 31 30 30 30 30 30 30 30 30 30 29 28 28 28 28 28 28 27 27 27 27 27
34 34 35 36 34 34 34 34 34 33 33 33 33 33 33 33 32 32 33 33 32 32 32 32 32 31 31 31 31 31 31 31 30 30 31 31 31 30 29 29 29 28 29 29
35 35 35 34 35 35 35 35 35 34 34 34 34 35 34 34 34 34 34 34 33 33 34 33 34 34 33 33 33 34 33 33 33 33 32 32 32 31 30 30 30 31 31 30
35 35 34 34 34 35 36 36 36 36 36 36 35 35 35 34 35 35 35 35 35 35 35 35 35 35 36 35 35 36 35 36 34 34 33 32 33 32 31 31 31 31 31 31
35 35 35 35 34 34 34 35 36 36 37 36 36 35 35 35 35 35 35 36 36 37 37 37 36 37 37 37 38 37 37 37 36 36 35 35 34 33 33 33 33 33 33 32
35 34 35 35 35 34 34 34 35 36 36 36 37 37 36 35 35 35 35 35 36 36 37 37 37 37 38 38 38 38 38 37 37 37 36 36 36 35 35 35 35 34 34 33
34 34 34 34 34 34 34 35 35 36 36 36 36 36 36 35 35 35 35 35 35 36 36 37 37 37 37 38 39 39 39 39 38 38 37 37 37 36 35 35 35 34 34 34
33 34 34 33 33 33 34 35 35 35 35 35 34 34 35 35 35 35 35 35 35 36 36 37 38 38 38 38 39 39 39 39 37 37 36 36 36 36 35 35 35 35 35 35
31 32 32 33 33 32 33 34 34 34 34 33 33 33 33 34 34 34 35 35 35 35 36 37 37 37 38 38 38 38 39 39 38 36 35 35 35 35 34 34 35 36 36 36
29 30 31 31 31 31 32 32 33 33 32 32 31 31 32 32 32 33 33 34 33 33 34 34 35 35 36 36 36 37 37 37 36 35 35 35 34 35 35 35 36 36 36 36
27 28 28 28 29 30 30 30 30 30 29 29 29 30 30 30 30 31 32 32 33 33 33 33 33 33 34 35 36 36 36 35 35 36 36 35 35 35 35 35 36 37 36 36
25 25 25 25 26 27 28 28 27 27 27 28 29 29 29 29 29 30 31 32 33 33 33 33 33 33 34 34 35 35 35 34 35 35 34 35 34 34 34 35 35 36 35 35
21 21 22 24 24 24 25 26 26 25 25 26 28 28 28 28 28 29 30 31 31 32 32 32 32 32 33 33 33 32 32 33 34 33 33 33 33 33 33 33 33 34 35 35
20 21 22 23 23 23 23 24 23 23 24 25 25 26 26 27 28 29 29 30 31 31 30 30 30 30 31 30 30 30 31 31 31 31 31 32 32 33 33 33 33 33 34 33
18 19 20 21 21 21 21 22 21 21 22 23 24 24 25 25 27 28 28 28 27 27 27 28 29 29 28 28 28 28 29 29 29 29 30 31 31 32 33 33 33 33 33 33
16 16 16 18 19 20 20 20 20 20 19 20 20 21 22 23 24 24 24 24 23 24 25 26 26 26 26 26 27 28 28 28 28 28 29 29 29 30 31 32 32 32 32 32
13 13 14 15 17 17 17 17 17 18 17 18 18 19 18 19 19 20 20 20 20 20 21 22 23 23 23 24 25 26 26 26 27 27 27 28 28 29 30 31 31 31 31 30
11 11 11 12 12 13 13 14 14 14 14 15 14 14 14 14 15 15 16 16 17 18 19 19 20 21 21 22 23 24 24 25 26 26 26 27 27 28 29 29 29 28 27 27
9 8 8 9 9 10 10 10 10 11 12 12 12 12 11 12 13 13 14 14 15 15 16 17 18 18 19 20 21 21 22 22 23 23 23 24 24 25 25 25 25 25 26 26
8 8 7 7 7 7 7 8 8 9 9 9 9 9 10 10 11 11 12 12 13 14 15 16 16 17 18 18 18 19 20 20 20 20 21 21 22 23 23 23 24 24 25 25
8 8 7 7 7 6 6 6 7 7 8 9 8 9 9 10 10 11 11 11 12 12 13 14 15 15 16 17 18 18 19 19 19 20 20 21 22 23 23 24 24 25 25 25

GEFSNGP_500_meanwind_204.txt.gz
Wind_Speed
31 26 23 22 22 24 25 25 24 23 24 26 26 26 26 26 25 26 26 24 24 25 25 25 24 23 23 23 23 22 21 20 20 20 19 20 20 20 19 20 20 20 19 19
31 29 27 24 24 24 24 24 25 25 27 26 27 29 27 28 27 28 26 26 26 26 27 27 26 25 24 24 24 23 22 21 21 22 22 22 22 22 22 21 21 21 22 22
29 28 28 28 25 25 24 24 26 27 30 32 30 30 28 28 29 29 29 27 27 27 28 28 28 27 25 25 24 24 24 23 24 23 23 23 23 23 23 22 22 23 24 24
28 27 28 29 28 27 27 28 28 29 30 32 32 32 31 31 31 31 29 28 28 28 28 29 29 28 27 27 25 25 25 25 25 26 25 26 25 25 25 25 25 25 25 25
29 27 27 27 28 27 28 29 31 31 31 33 34 33 33 33 33 33 30 29 29 29 29 30 30 30 29 28 28 28 27 27 26 27 27 27 27 27 27 27 27 28 27 27
30 28 26 29 30 29 28 30 32 33 33 34 33 33 34 33 32 32 31 30 29 29 30 30 30 30 30 30 30 30 30 29 29 28 28 29 29 29 29 30 30 30 30 29
30 29 29 33 32 29 30 32 33 34 34 35 35 36 35 33 33 32 31 30 31 31 31 31 31 31 31 31 31 31 31 31 31 31 31 31 30 30 30 31 31 30 30 29
30 30 33 35 34 32 34 34 33 34 35 35 35 36 36 34 35 34 32 32 32 32 32 32 32 32 32 32 32 32 32 32 32 33 33 33 32 32 32 32 32 31 31 30
31 33 35 35 35 35 35 36 36 37 37 37 36 36 36 36 36 35 35 34 34 34 34 34 34 34 34 33 33 33 33 33 33 34 34 34 34 34 34 34 33 33 33 31
34 36 36 36 36 35 34 35 36 38 39 38 37 37 37 38 38 38 37 37 36 36 36 36 36 36 36 35 35 35 35 34 34 35 35 35 35 35 35 35 35 35 34 32
34 35 35 37 37 36 35 36 36 37 38 37 38 38 38 38 38 38 38 37 38 38 38 38 37 37 37 38 38 37 37 36 36 37 37 37 37 37 37 37 37 37 36 35
34 36 37 36 37 36 36 37 37 37 37 38 38 38 39 39 39 39 38 38 38 38 38 38 38 37 37 38 38 37 37 37 38 38 38 38 38 38 38 38 38 38 38 37
35 36 36 35 36 36 36 37 37 37 38 38 38 38 38 38 38 38 38 39 38 38 38 38 38 38 37 38 37 37 38 38 38 38 39 39 38 38 39 39 39 39 39 39
33 33 33 34 34 35 36 37 37 37 37 37 37 37 37 37 37 38 38 39 39 38 38 38 38 38 38 38 38 38 38 39 39 39 39 40 39 39 40 41 40 40 39 39
32 33 34 34 34 34 35 36 37 37 37 37 37 36 37 37 38 38 38 38 38 38 38 37 37 36 37 37 37 37 38 39 40 40 40 41 41 40 41 41 40 39 39 38
30 31 32 33 34 34 35 35 35 35 35 36 36 36 37 37 37 37 37 36 36 36 36 36 37 36 37 37 37 37 38 38 38 39 39 40 40 41 41 41 40 39 38 38
29 29 30 31 32 32 33 33 34 33 33 34 34 34 35 35 35 35 34 34 34 34 34 34 35 35 36 36 36 37 37 37 38 38 38 39 40 40 40 39 38 37 38 38
28 29 30 31 31 31 31 32 33 33 33 33 32 33 33 34 34 33 32 32 33 33 33 33 33 33 34 34 35 35 35 35 35 36 36 36 37 36 36 37 36 35 35 35
26 26 26 27 28 30 30 30 31 31 31 31 31 31 31 31 30 30 29 29 30 31 31 32 32 33 32 32 32 32 32 33 34 34 35 35 35 35 34 34 34 32 32 32
23 23 24 25 25 27 27 27 28 28 28 29 29 29 29 29 29 28 27 27 27 28 29 30 31 31 32 31 31 32 32 33 34 34 34 33 33 33 33 33 33 31 30 30
21 21 22 22 23 24 25 25 26 26 26 26 26 26 26 25 26 25 25 26 26 26 27 28 28 28 29 29 30 30 30 30 31 32 31 31 32 32 31 30 30 30 30 29
18 18 19 20 20 21 21 22 22 23 23 23 23 23 23 23 23 24 24 25 25 25 25 25 25 26 26 27 28 28 28 29 29 29 29 29 29 28 28 29 29 29 30 30
16 16 16 17 17 17 17 18 18 19 20 20 21 21 21 21 21 22 23 23 22 22 22 23 24 24 25 25 24 24 24 24 25 25 25 25 25 25 26 27 28 28 29 29
14 14 14 15 15 15 15 15 15 15 15 16 17 17 18 18 18 19 19 19 19 20 20 21 22 22 22 22 22 22 23 23 23 23 23 23 24 24 25 25 26 26 26 26
13 12 11 11 11 12 13 12 12 12 12 13 13 14 15 15 15 16 16 17 17 18 18 17 16 17 17 18 18 18 19 19 20 21 22 23 23 24 24 24 24 24 24 25
10 9 9 9 9 9 10 10 10 9 9 9 10 10 11 11 12 12 12 13 13 13 13 14 14 15 16 16 16 17 17 18 19 20 20 21 22 22 23 23 24 25 25 26
7 7 7 7 7 7 7 7 7 7 7 7 8 9 9 10 10 10 10 10 10 11 12 13 13 14 15 15 15 16 16 17 17 18 18 19 21 22 23 23 24 24 25 25

GEFSNGP_500_meanwind_210.txt.gz
Wind_Speed
32 32 32 32 31 29 29 29 30 29 29 27 26 25 24 23 22 21 20 20 22 23 23 22 21 21 21 20 20 19 19 19 19 19 19 19 19 18 18 18 18 18 17 16
33 32 33 33 32 31 31 31 31 31 30 28 28 27 25 25 24 24 24 24 24 24 24 24 23 23 23 22 23 21 21 21 20 21 20 21 20 20 19 19 19 18 19 18
33 33 34 35 33 32 32 30 30 30 30 30 30 30 27 26 26 27 27 26 26 25 26 25 24 24 24 24 24 23 23 23 23 23 22 22 22 22 21 21 20 19 19 19
34 34 36 35 34 33 32 32 31 30 30 30 30 30 30 30 30 29 28 28 27 27 26 25 25 25 26 27 26 25 25 25 25 25 25 24 24 23 22 21 21 21 21 22
33 33 35 35 36 36 35 33 33 33 32 32 31 33 33 32 30 29 27 27 27 27 27 26 25 26 26 27 27 26 26 26 26 27 26 25 24 25 24 23 23 23 24 24
32 33 34 34 35 36 37 37 36 35 34 33 32 32 32 32 32 31 30 30 30 29 28 28 28 27 27 28 28 28 28 28 28 28 27 27 26 26 25 25 25 25 26 26
31 33 35 34 35 35 37 38 37 36 36 34 33 33 33 34 34 34 32 32 32 32 31 31 31 30 30 29 29 29 29 29 29 28 28 27 27 27 27 27 26 26 26 27
32 33 35 35 35 36 36 36 36 37 36 34 34 34 35 36 36 36 35 35 35 34 34 34 33 32 32 31 30 30 31 30 30 29 29 29 29 29 29 29 28 28 29 29
33 34 34 34 34 35 35 36 36 37 36 37 36 36 37 38 38 38 37 36 36 37 36 36 35 34 33 33 32 31 31 31 30 30 31 31 32 32 31 31 31 31 31 31
32 33 33 33 34 34 35 36 37 38 37 37 37 38 38 38 38 38 38 38 38 38 38 37 37 35 35 34 33 33 33 32 32 32 33 34 34 33 34 34 35 35 34 34
32 31 31 31 33 34 34 35 37 37 38 37 37 37 38 38 38 37 38 37 37 37 37 37 37 36 36 36 36 35 35 34 34 34 35 35 36 35 35 35 36 36 35 35
33 33 33 34 33 34 34 34 35 36 36 37 38 37 37 37 36 36 37 37 36 36 36 36 36 37 38 38 37 37 36 36 36 37 38 38 38 37 37 37 37 36 36 36
32 33 34 35 36 36 35 35 34 35 36 37 36 36 37 36 36 36 36 36 36 37 37 37 37 38 38 38 38 38 38 37 37 38 38 37 37 38 38 38 37 37 36 37
32 32 33 34 34 34 33 33 33 34 35 35 34 35 35 35 35 35 35 36 36 37 37 36 36 37 37 38 37 36 37 37 37 37 37 37 37 37 37 37 37 37 36 36
32 32 31 32 33 33 32 32 33 34 35 35 34 33 33 33 33 33 34 35 35 35 35 35 36 35 36 36 36 36 36 37 37 37 36 36 36 36 36 36 36 36 36 36
30 30 30 30 31 32 32 32 33 34 34 34 33 33 33 33 33 32 33 33 34 34 34 34 35 35 35 35 34 34 35 35 35 34 34 35 36 36 36 35 35 35 35 35
27 29 29 29 29 30 30 31 32 34 34 32 32 31 32 32 32 32 32 32 32 32 32 32 33 33 32 31 31 32 32 32 32 33 34 33 34 34 33 33 33 33 33 33
26 26 27 27 27 27 28 29 29 30 30 29 29 30 30 30 31 31 31 31 31 31 31 30 29 29 29 29 29 30 31 31 31 31 31 30 30 30 30 29 30 30 31 31
24 24 24 26 27 27 27 26 26 26 26 26 27 28 28 28 29 29 29 29 29 29 28 27 27 27 27 28 28 29 29 29 29 28 28 28 28 28 28 28 28 30 30 30
21 22 22 23 25 26 26 25 24 24 24 24 24 25 25 26 26 27 26 26 26 26 26 25 25 25 25 25 25 26 27 27 26 26 26 26 27 28 27 27 27 28 28 28
19 19 20 21 23 23 23 23 23 22 22 23 23 23 23 23 23 24 24 24 24 24 24 24 24 24 24 24 24 24 24 25 26 26 26 26 27 27 27 27 27 27 27 27
18 18 19 19 20 21 21 23 23 22 22 22 22 22 21 21 21 22 22 23 23 23 23 23 23 24 23 22 22 22 22 23 24 25 25 25 25 25 25 25 25 25 25 24
16 17 18 18 19 19 19 20 20 20 20 21 21 20 20 20 20 20 20 20 20 20 20 20 20 20 20 20 19 19 20 21 22 22 22 22 23 23 23 23 23 23 23 23
14 15 15 16 16 16 16 16 16 16 17 17 18 19 19 18 18 18 19 19 19 19 18 18 18 17 17 18 19 19 20 20 20 20 20 20 21 22 22 22 22 23 23 23
12 12 13 13 13 13 13 13 12 12 12 13 14 14 14 15 15 15 15 15 16 16 16 16 16 17 17 17 17 17 17 17 17 18 18 18 18 19 19 20 21 21 21 21
11 11 12 12 11 11 10 9 9 10 11 11 10 10 11 11 12 12 13 13 13 13 13 14 15 15 15 15 14 14 14 15 16 16 17 17 17 18 18 19 20 20 21 22
9 9 9 9 9 8 8 8 8 8 8 8 8 8 8 9 9 10 11 11 11 11 12 12 12 12 12 12 12 13 14 14 15 16 17 17 18 18 19 19 20 21 21 22

GEFSNGP_500_meanwind_216.txt.gz
Wind_Speed
29 29 31 32 32 32 32 32 33 31 30 28 27 25 24 22 22 20 20 19 20 20 20 19 19 19 20 21 21 20 20 20 21 21 22 22 23 23 23 22 22 22 21 22
29 29 30 31 32 33 32 33 33 33 31 28 28 26 26 24 23 22 22 21 21 20 19 19 20 20 21 21 21 21 21 22 23 23 24 24 24 24 23 24 23 23 22 21
30 29 30 31 32 32 33 33 33 32 30 30 29 27 27 26 25 24 24 23 22 21 20 21 22 23 22 23 23 24 24 24 24 24 24 24 25 24 24 25 25 25 25 24
31 31 33 32 32 33 34 34 32 32 30 29 28 28 28 27 27 26 25 25 24 24 23 24 25 26 26 25 26 26 26 26 25 25 25 26 26 26 26 26 26 26 26 26
33 34 34 34 33 33 33 34 33 32 30 30 29 28 28 28 28 28 27 27 27 27 27 27 28 28 28 28 28 28 27 27 27 27 27 26 27 27 27 27 26 26 26 27
35 35 35 34 33 33 33 34 33 33 32 30 30 29 29 29 29 30 30 30 30 30 29 29 30 29 30 30 29 28 28 29 29 29 28 28 28 28 28 28 27 26 26 26
34 35 35 34 33 33 33 33 32 32 32 32 31 30 30 31 31 31 31 31 32 32 31 32 33 32 30 30 29 29 29 29 30 30 30 30 29 29 29 30 29 28 28 28
34 34 34 32 31 31 31 31 31 32 31 32 32 32 32 33 33 33 32 32 32 33 33 34 34 33 32 31 30 31 32 32 32 32 32 32 32 31 31 31 31 31 31 31
32 32 31 30 30 30 31 32 32 32 33 33 33 33 33 34 34 34 34 35 35 35 35 35 35 35 34 33 33 33 34 34 34 34 34 34 33 33 32 32 32 32 32 32
32 31 31 31 31 30 31 32 32 33 33 33 34 35 34 34 35 35 36 37 37 37 38 36 36 36 35 35 35 35 35 35 36 36 36 36 35 35 35 34 33 33 33 34
33 32 32 32 32 31 31 32 32 33 34 34 34 35 36 36 36 36 36 37 37 37 37 36 35 36 37 37 37 37 36 37 37 37 37 37 37 37 37 36 35 35 34 34
33 32 32 32 32 32 32 32 31 32 33 34 34 35 36 36 36 36 37 38 37 37 37 36 36 36 36 37 37 37 37 37 38 37 37 37 36 36 35 36 36 36 35 35
32 32 33 32 32 32 31 31 31 32 33 34 35 36 36 37 37 36 36 37 38 38 38 36 36 36 36 37 37 37 37 37 37 37 37 37 36 35 35 35 35 35 35 36
32 32 32 32 31 31 31 31 32 32 32 33 33 33 34 34 34 35 36 36 36 36 35 34 34 34 36 37 37 37 37 38 37 37 38 38 37 36 35 35 35 35 35 35
30 31 31 31 30 30 30 31 31 31 32 33 34 33 34 34 35 36 36 36 35 35 34 34 34 34 35 35 36 36 37 37 36 36 36 36 35 34 34 34 34 34 34 34
28 29 30 30 29 29 29 30 30 31 31 31 32 32 32 33 33 33 34 34 34 34 34 33 33 33 33 34 34 34 35 34 34 34 34 34 33 33 33 33 32 32 32 31
27 27 28 29 29 28 28 28 28 29 29 29 28 29 30 30 30 30 31 32 32 31 32 32 32 32 32 33 33 32 32 32 32 31 31 31 30 31 31 31 30 30 30 29
23 24 25 26 27 26 26 26 26 26 26 26 27 27 27 28 28 29 29 30 30 30 31 31 31 31 31 31 31 30 29 29 29 29 29 29 29 29 29 29 29 28 28 27
22 22 23 24 24 24 23 24 24 25 25 26 26 27 27 27 27 27 28 28 28 28 29 29 29 29 30 30 29 29 28 27 26 26 26 27 27 28 28 28 27 27 27 27
21 20 20 21 22 22 23 23 24 24 25 26 26 26 26 26 26 25 25 25 26 26 27 28 28 28 27 27 26 26 26 25 24 24 24 25 25 26 26 26 27 27 26 26
19 19 19 20 21 22 22 23 23 24 24 24 24 24 25 25 25 25 25 24 24 25 26 26 25 24 24 25 25 24 23 23 23 23 23 24 24 24 24 25 25 25 25 24
17 17 18 18 19 21 21 22 22 23 23 23 23 23 23 23 23 23 23 22 22 22 22 22 22 22 22 22 21 21 21 22 21 21 21 21 21 22 22 22 22 22 23 23
14 15 16 17 18 18 19 19 20 20 20 20 20 21 20 20 20 21 21 21 21 21 21 21 21 21 21 21 20 20 20 20 21 21 21 21 21 21 21 22 22 23 23 24
13 13 15 16 16 16 16 17 17 17 17 17 18 18 18 18 19 19 19 19 19 18 18 18 19 19 20 20 20 20 20 20 20 20 20 20 21 21 21 22 22 22 23 23
11 12 13 14 14 14 14 14 15 15 15 15 15 16 16 16 16 17 17 17 16 16 16 16 17 17 18 18 19 19 19 19 19 19 20 20 20 21 21 21 22 22 22 23
8 8 9 9 10 11 11 12 12 13 13 13 13 13 13 13 13 13 14 14 14 14 14 15 15 15 16 16 17 17 18 18 18 18 19 19 20 21 22 22 21 21 21 22
7 7 8 9 9 9 9 10 11 11 11 11 11 11 11 12 11 11 11 11 12 13 13 13 13 14 15 15 16 17 17 17 18 18 19 19 20 20 20 21 21 21 22 22

GEFSNGP_500_meanwind_222.txt.gz
Wind_Speed
27 26 26 27 28 29 29 28 27 26 26 26 25 25 23 22 22 22 23 23 23 23 24 23 23 23 24 24 24 24 24 23 24 24 23 23 23 23 23 24 24 24 24 23
28 27 26 26 26 27 27 27 28 27 27 26 26 25 24 23 23 23 23 23 23 23 24 24 24 24 24 25 25 25 25 25 25 25 25 25 25 25 25 26 26 25 25 24
26 26 26 28 27 26 26 27 28 27 26 26 26 25 25 25 24 24 24 25 25 24 24 23 24 24 25 25 25 26 27 26 27 27 27 28 27 27 27 27 26 26 25 25
27 27 28 28 27 27 26 26 27 28 28 27 26 25 26 26 25 26 26 26 26 26 26 25 25 26 26 27 28 29 29 29 29 29 29 29 29 28 27 27 27 27 26 27
27 27 29 31 29 27 27 27 28 29 28 27 26 26 26 26 27 28 28 28 27 28 28 28 28 28 28 29 30 32 31 31 31 31 31 31 31 30 29 29 28 28 28 28
28 27 28 31 29 27 28 29 29 28 28 29 28 28 28 27 28 28 29 30 30 30 30 30 30 30 30 30 31 31 32 32 32 32 32 32 32 31 30 30 30 30 29 29
29 29 30 31 29 28 29 29 28 28 28 28 28 30 29 29 29 29 30 31 32 32 31 31 30 31 31 31 32 32 32 33 34 34 34 33 33 32 33 32 32 31 31 30
30 31 31 32 30 30 30 30 29 29 29 28 28 29 29 30 30 30 31 31 32 32 31 31 31 32 32 33 33 33 34 34 35 34 34 33 34 33 34 33 33 33 32 32
32 32 32 31 30 30 30 29 29 29 29 29 29 30 30 30 31 32 33 33 33 33 32 32 33 33 34 34 34 35 35 34 34 34 34 34 34 33 33 34 34 34 34 34
32 31 31 30 29 29 29 30 29 29 29 30 30 31 31 31 33 33 34 34 34 34 34 35 35 35 35 36 36 37 36 36 35 35 35 35 35 34 34 35 35 35 35 35
31 31 30 30 30 29 29 30 31 31 31 31 31 31 31 32 32 33 33 33 34 34 34 34 35 36 37 37 37 38 37 36 36 36 35 36 36 35 35 35 35 36 36 36
29 29 29 30 30 30 30 30 30 30 30 31 31 32 32 32 31 32 33 34 35 35 35 36 36 37 37 37 38 38 38 38 37 35 36 36 36 36 36 36 37 37 38 38
27 27 28 28 29 29 29 29 29 29 29 30 30 31 31 31 32 33 33 34 34 35 35 36 37 37 37 38 38 38 38 38 38 37 38 37 36 37 37 38 38 38 38 37
25 25 26 26 26 27 28 28 29 29 29 29 29 30 31 31 32 32 33 33 34 35 35 35 36 37 37 37 38 38 38 38 38 39 39 39 38 37 37 37 37 37 37 36
24 24 25 25 26 26 27 27 27 28 28 28 29 30 31 31 31 31 31 32 33 33 34 34 35 35 36 36 36 36 36 36 36 37 37 36 36 35 35 36 35 34 34 33
22 23 24 24 25 25 26 26 26 27 27 27 28 28 28 29 29 29 29 30 31 31 32 32 33 33 33 33 34 35 35 34 35 35 35 35 34 34 34 33 32 31 31 31
22 23 23 23 24 24 24 25 25 25 25 27 27 27 27 27 28 27 27 28 29 29 30 30 30 30 31 31 32 32 33 32 32 33 33 32 31 32 32 31 31 30 29 29
22 23 23 24 23 23 23 23 23 24 24 25 25 26 26 26 26 26 27 27 27 28 28 29 29 29 29 30 30 31 31 31 30 30 29 29 29 29 28 28 28 28 27 28
22 22 22 24 24 24 24 23 23 24 24 24 24 25 26 26 26 26 27 27 27 27 27 28 28 27 28 28 29 29 29 28 28 28 28 28 27 26 26 26 26 25 25 25
20 21 21 22 23 23 23 23 23 23 23 23 23 23 23 23 24 24 25 25 25 26 26 26 27 27 27 28 28 28 27 27 27 26 26 25 26 26 25 25 24 24 25 25
17 18 18 19 20 21 22 22 22 22 22 22 22 22 23 23 23 23 23 23 23 24 24 25 26 26 26 26 27 26 26 26 26 25 25 25 25 25 25 25 25 25 24 23
15 15 16 17 18 19 19 20 20 20 21 21 21 22 22 22 21 21 21 21 22 23 23 24 24 24 24 24 23 23 22 23 23 22 22 22 22 22 22 22 23 23 23 23
13 13 14 15 16 16 17 17 17 18 18 19 20 21 20 20 20 20 20 21 21 22 22 21 21 21 21 20 20 20 21 21 21 22 22 22 22 21 21 21 21 22 22 22
10 11 12 12 13 14 14 14 14 15 16 17 17 18 17 18 18 19 20 20 20 20 19 19 18 18 19 18 18 18 19 20 20 21 21 21 21 21 21 21 22 22 23 23
9 10 11 11 11 12 12 12 11 11 12 13 13 14 15 16 16 17 17 17 17 17 17 17 17 17 17 17 17 18 18 18 19 20 20 20 21 21 21 22 23 23 23 24
8 9 9 10 10 10 10 10 10 9 10 10 11 12 13 13 12 12 12 12 13 14 14 15 15 15 16 16 16 17 17 17 18 18 19 20 20 21 21 22 22 23 23 24
7 7 7 8 8 8 8 8 8 8 9 9 10 9 9 10 10 11 11 11 12 12 13 13 14 15 15 15 15 16 17 17 18 19 19 20 21 21 22 22 23 23 24 24

GEFSNGP_500_meanwind_228.txt.gz
Wind_Speed
28 25 24 25 25 26 27 28 27 26 27 28 26 27 26 25 26 26 27 27 25 26 27 26 25 25 25 24 24 24 23 23 24 24 24 24 24 24 25 24 24 24 24 24
29 28 27 27 27 28 28 28 28 26 27 29 29 30 28 26 28 28 26 27 26 25 26 26 26 26 26 26 26 26 25 25 25 26 26 26 26 26 26 26 26 26 25 25
30 28 28 28 28 27 28 27 28 29 30 31 30 31 32 29 28 27 27 27 26 26 26 27 27 27 27 28 28 28 28 28 28 28 28 28 28 28 27 27 27 26 26 27
29 28 29 28 26 26 27 28 28 30 31 32 30 30 28 28 28 27 27 27 26 26 28 27 27 28 28 29 30 30 30 30 29 30 30 29 30 29 28 28 28 28 28 29
29 28 28 28 28 28 28 30 31 30 31 31 29 30 31 29 28 29 28 27 27 28 28 29 29 30 30 31 31 31 31 31 31 32 32 32 31 30 30 30 30 30 30 30
30 28 28 29 28 28 28 29 30 31 31 30 30 31 32 30 29 29 30 28 28 29 29 30 31 31 31 32 33 33 33 33 33 33 34 34 32 32 32 32 32 32 32 31
30 30 29 29 27 27 28 30 30 31 32 32 33 34 33 31 31 31 31 30 30 30 30 31 32 33 33 32 33 33 34 34 34 34 34 33 32 32 33 34 34 34 34 32
31 31 32 31 28 29 30 31 31 31 31 33 33 34 34 34 33 33 33 32 32 32 32 33 33 34 34 34 34 34 35 35 35 35 34 34 34 33 34 34 35 35 34 33
32 34 34 34 33 32 32 33 33 33 32 33 33 33 34 34 34 34 32 32 32 33 34 34 35 35 36 36 36 36 36 36 36 36 35 34 35 35 35 35 35 35 36 35
34 35 35 35 35 34 34 34 34 33 33 33 33 34 33 33 33 32 31 32 32 34 35 36 36 36 37 36 37 37 37 37 37 36 35 36 35 35 36 36 35 35 35 34
34 35 36 36 35 34 34 34 35 34 33 33 33 34 34 33 33 33 33 34 34 34 36 36 36 36 36 36 36 36 36 37 37 37 36 36 36 37 36 36 36 35 36 36
34 34 34 34 34 35 35 35 35 34 35 34 34 34 34 34 34 34 34 34 35 35 35 36 36 36 36 36 37 37 37 37 37 36 36 36 36 36 35 36 36 36 36 36
33 33 34 33 32 33 34 33 33 34 35 35 34 34 33 33 33 33 34 34 34 35 36 36 36 36 36 36 37 36 36 36 36 36 37 36 36 36 35 35 36 36 35 35
30 29 29 29 29 30 31 32 32 32 33 33 32 32 32 32 33 33 32 33 33 34 35 35 35 35 36 36 36 36 36 36 36 36 36 36 36 35 35 35 36 36 35 35
28 28 28 29 28 28 28 29 29 30 30 30 30 30 31 31 31 31 31 32 33 33 33 34 35 35 35 35 35 35 35 35 35 35 35 35 35 35 34 34 35 35 35 35
25 25 25 26 27 27 27 27 28 28 28 28 28 29 30 30 30 31 31 31 32 32 32 33 33 34 33 33 33 33 33 33 33 33 33 33 32 32 32 32 33 33 34 34
23 23 23 24 25 26 26 26 27 27 27 26 27 27 28 28 29 29 29 29 30 31 31 31 31 31 31 31 32 32 32 31 31 31 30 30 30 30 31 31 32 32 32 32
22 23 23 24 25 25 25 25 25 25 26 26 26 26 26 26 26 27 28 29 29 29 29 30 29 29 29 29 29 29 29 29 29 29 29 29 29 29 29 30 31 31 31 31
21 21 22 22 23 23 23 23 24 25 25 25 25 26 25 25 25 25 26 26 27 26 26 26 26 26 25 26 27 27 28 28 28 28 28 29 29 29 29 29 29 29 29 29
20 21 21 21 21 21 22 22 23 25 25 25 25 25 24 24 24 24 24 24 25 24 24 24 24 24 25 25 25 25 26 26 26 27 28 28 29 29 29 28 28 28 28 28
19 19 20 20 21 22 23 23 24 24 23 23 23 23 23 23 23 23 23 22 22 22 23 23 23 23 24 24 24 24 25 25 25 26 26 27 27 28 28 28 28 28 28 28
18 18 19 20 20 21 21 21 22 22 22 21 21 21 22 22 22 22 21 21 21 21 22 22 22 22 22 23 23 24 24 24 25 25 25 25 26 26 27 27 28 27 27 27
16 16 17 17 18 18 19 20 20 19 19 19 19 19 20 20 20 20 19 19 19 19 20 21 21 21 22 23 23 23 24 24 24 24 25 25 25 26 26 26 26 26 27 27
15 15 15 16 16 17 17 16 16 17 17 16 17 17 18 17 17 17 18 18 19 19 19 19 20 21 22 22 23 23 23 23 23 24 24 24 25 25 25 25 25 25 25 26
13 13 13 14 14 14 14 14 14 15 15 15 16 15 15 15 15 16 16 17 18 18 19 19 20 21 22 22 23 22 22 22 23 23 23 23 24 24 24 25 25 25 24 24
11 12 12 13 12 12 12 12 12 12 12 13 12 12 13 14 15 15 16 17 17 18 19 20 21 22 22 22 23 23 23 23 23 23 22 22 23 23 24 24 25 24 25 25
11 11 11 11 11 11 11 11 11 10 9 9 10 11 12 13 13 14 15 16 17 18 19 20 20 20 20 20 21 21 22 22 22 22 22 22 23 23 23 24 25 26 26 26

GEFSNGP_500_meanwind_234.txt.gz
Wind_Speed
32 31 32 32 31 31 32 33 33 32 32 31 30 30 29 28 27 26 25 23 22 20 21 22 22 23 24 25 24 23 22 22 22 21 21 21 21 22 22 22 22 22 22 22
34 33 33 33 32 32 32 32 32 32 33 32 33 32 30 29 28 27 27 27 24 22 22 22 22 23 25 25 25 25 24 23 24 24 24 24 24 24 24 23 23 23 23 23
35 34 35 36 34 33 32 32 33 33 33 34 35 32 31 30 29 28 28 27 25 23 22 23 24 25 26 27 27 27 26 26 26 25 25 25 26 26 25 25 25 24 24 25
37 36 37 34 34 35 34 33 33 33 33 33 33 33 32 31 29 28 28 26 25 24 23 24 25 25 25 26 26 26 27 26 27 27 27 27 27 27 27 27 27 27 26 26
37 38 38 36 34 34 34 34 34 33 32 33 34 34 32 30 29 29 28 26 25 25 25 25 25 26 26 25 25 27 28 29 28 29 29 29 28 28 28 29 30 29 28 28
36 38 38 34 33 33 34 36 35 34 33 33 34 35 33 31 30 29 28 28 27 26 26 26 26 26 26 27 29 29 29 29 30 31 31 31 31 30 31 31 30 30 31 30
36 37 37 35 34 33 34 35 33 33 33 32 33 33 32 30 29 29 29 28 27 27 27 27 27 27 28 30 30 30 30 30 30 31 31 32 32 32 31 31 31 31 31 31
36 36 36 34 33 34 33 32 33 33 33 32 32 32 33 32 31 30 30 29 28 29 29 29 29 30 30 31 32 31 31 31 32 32 32 33 33 32 32 32 31 31 31 32
35 35 33 33 33 31 31 31 32 32 32 32 32 33 34 33 33 33 32 31 30 31 31 32 32 31 32 33 33 33 32 32 32 33 34 33 33 33 33 33 33 33 31 32
34 34 33 32 32 32 31 30 31 31 31 31 31 31 32 33 34 34 32 32 33 33 33 33 33 34 34 34 35 35 34 34 34 34 35 34 33 33 33 32 32 33 32 32
32 31 31 32 32 31 30 29 30 30 30 30 30 31 31 31 31 32 33 33 34 34 34 33 33 34 35 36 36 35 35 35 34 34 35 35 34 33 32 33 33 33 32 32
29 30 30 30 30 30 29 29 29 29 29 30 31 32 32 32 32 32 32 33 33 33 33 33 33 34 35 35 35 35 35 34 33 34 35 34 34 33 33 33 33 32 32 32
28 29 30 29 29 29 28 28 29 29 29 30 31 31 32 33 34 33 32 33 33 31 32 33 33 32 32 32 32 33 33 33 34 34 34 34 33 33 33 32 32 32 33 32
27 28 29 29 28 27 27 28 29 29 29 29 30 31 31 31 32 32 32 31 30 30 31 31 31 31 30 31 31 31 32 32 32 32 32 32 32 32 32 32 31 31 32 32
25 26 27 28 28 26 27 27 27 27 27 28 29 29 29 29 29 30 29 30 29 29 29 30 30 29 30 31 30 30 30 30 30 30 30 30 30 30 30 30 29 30 30 30
25 25 26 26 26 25 25 25 26 26 26 26 27 27 27 28 28 27 27 27 27 27 28 29 28 28 29 30 30 30 29 29 29 29 29 29 29 30 29 30 29 29 29 29
23 22 22 22 22 22 23 23 23 24 24 25 26 25 25 25 26 26 26 26 26 26 27 27 27 28 28 29 29 28 28 28 29 28 27 28 29 29 29 29 29 29 28 27
21 21 21 22 21 22 21 22 22 23 24 24 25 24 24 24 24 24 24 25 25 25 26 26 26 27 27 27 27 27 27 27 27 27 26 27 27 28 29 28 28 27 27 27
20 20 20 20 20 21 21 21 21 21 22 22 23 23 23 23 23 24 24 24 24 25 25 26 26 26 26 25 25 25 26 26 26 26 26 27 27 27 27 27 27 27 27 27
16 17 18 18 18 19 20 21 21 21 21 22 22 22 22 23 23 23 23 23 23 23 23 23 23 23 23 23 24 25 25 25 25 25 25 25 25 25 26 26 27 27 27 27
14 16 16 17 18 18 19 20 21 21 22 22 22 22 22 22 22 23 23 22 22 22 21 21 21 22 22 22 22 23 23 24 23 23 23 23 23 23 24 25 25 25 26 26
13 13 15 16 17 18 19 19 20 21 21 21 21 21 21 21 21 21 21 21 21 21 20 20 20 20 20 20 21 21 22 22 21 22 22 22 23 23 24 24 25 25 25 25
13 12 14 15 16 17 18 19 19 19 19 19 19 19 19 19 20 20 20 20 20 19 19 18 19 19 19 19 20 20 21 21 22 22 22 22 23 24 24 24 25 25 25 26
12 13 13 14 15 15 16 16 16 16 17 17 18 18 18 18 19 18 18 18 18 18 18 18 18 18 19 19 19 20 20 21 22 22 23 23 23 23 24 25 25 25 25 26
12 13 13 13 13 13 14 14 13 13 14 14 15 16 16 17 17 17 17 17 18 18 17 17 18 18 18 19 20 20 21 21 22 22 22 22 23 24 25 25 25 25 26 26
10 11 11 11 11 11 11 11 11 12 12 13 13 14 14 14 14 14 15 16 16 16 16 17 17 17 18 19 19 20 21 21 22 22 22 22 23 24 25 25 25 25 26 26
8 8 8 8 8 8 8 9 9 10 11 11 11 12 13 13 13 14 14 14 14 15 16 16 16 17 18 19 20 20 21 21 22 22 23 23 24 24 25 25 26 26 26 27

GEFSNGP_500_meanwind_240.txt.gz
Wind_Speed
34 33 34 34 34 35 35 35 35 34 33 31 29 30 30 28 28 27 27 25 24 24 23 23 23 23 23 23 24 24 24 23 23 23 24 24 24 24 24 23 24 23 23 22
35 35 35 35 35 35 35 35 36 35 34 31 29 29 29 28 28 28 27 26 24 24 24 24 24 25 25 25 25 25 26 25 24 25 25 25 26 26 26 25 24 24 23 23
37 36 37 36 35 35 35 34 35 35 33 32 31 30 28 27 28 27 27 26 25 26 26 26 26 25 26 26 25 26 27 26 26 26 27 26 26 27 27 26 24 25 25 25
37 37 38 36 35 35 35 34 34 35 34 32 31 30 30 29 29 28 27 27 26 25 26 26 26 26 26 26 27 27 27 28 28 27 27 27 27 27 28 28 27 27 27 27
38 38 38 36 35 35 35 35 34 34 33 33 32 31 30 30 29 29 29 28 26 26 26 26 26 26 27 27 27 29 29 29 28 28 28 28 28 29 29 29 28 29 29 29
39 39 39 36 35 35 35 35 33 34 33 33 32 31 29 29 29 29 29 28 27 28 28 28 28 28 28 28 28 28 29 30 30 30 30 29 30 30 30 30 30 31 31 31
38 39 39 37 36 36 36 34 32 32 32 32 33 31 30 30 30 30 30 29 30 30 30 30 30 29 29 29 30 30 31 30 29 29 29 30 31 31 31 32 32 32 31 31
38 38 38 36 36 36 34 33 33 32 32 32 31 31 31 32 32 31 30 30 31 31 31 31 30 30 30 29 30 30 30 30 30 30 29 30 31 31 32 32 33 33 32 32
38 38 37 36 36 34 34 33 32 32 31 31 31 31 31 31 30 30 30 30 30 31 30 30 31 31 30 30 30 30 30 30 31 31 32 32 32 32 33 34 34 34 33 33
36 37 37 36 36 34 33 33 32 31 30 30 31 30 30 30 30 30 28 29 29 29 30 31 31 30 30 30 31 31 30 31 32 32 32 32 32 33 34 34 35 34 34 34
34 35 35 35 35 34 33 32 31 30 29 30 30 29 29 30 30 29 28 28 28 29 30 30 30 31 31 31 31 31 31 31 32 32 32 32 32 32 33 33 34 34 35 35
31 30 30 31 32 32 32 31 31 30 29 29 29 28 28 29 28 28 27 27 28 29 30 30 30 30 30 30 30 31 31 31 32 31 30 31 31 31 32 32 33 33 33 34
28 27 27 27 27 28 29 29 29 29 28 28 27 26 26 28 29 29 29 28 29 30 29 29 29 29 30 30 30 31 31 30 30 30 29 30 30 31 31 31 31 32 33 33
26 26 25 25 25 25 26 27 27 27 26 26 25 26 27 27 28 28 27 27 28 29 29 28 28 28 29 29 29 29 29 29 29 29 29 29 30 31 31 31 31 31 31 31
25 24 24 23 24 25 25 25 25 26 26 26 26 25 25 25 25 25 26 26 27 28 27 27 28 28 28 28 28 28 28 28 28 29 29 30 30 30 30 30 30 30 31 30
23 23 23 23 23 23 23 23 23 24 24 23 23 23 23 24 24 24 24 24 25 26 27 27 27 26 26 27 28 27 27 28 28 29 28 28 28 28 28 29 29 29 29 28
20 20 21 21 20 20 21 21 21 22 22 21 22 22 22 22 23 22 23 24 25 26 26 26 26 26 26 27 27 27 27 27 27 27 28 27 27 27 28 28 29 28 29 29
18 17 17 17 17 18 19 20 21 21 20 20 21 22 22 22 22 22 23 24 25 25 24 25 25 26 26 26 26 26 26 26 26 26 27 26 26 27 28 29 30 30 30 30
16 16 17 17 17 19 19 20 21 20 20 21 21 22 22 21 21 21 22 23 22 23 23 23 24 24 23 23 24 25 25 25 25 25 25 26 26 27 27 28 29 30 29 29
16 16 17 18 18 19 19 20 20 21 21 21 21 21 21 21 21 21 21 21 21 22 23 23 23 23 23 24 24 24 24 24 24 24 25 26 27 27 27 28 28 28 27 28
15 16 16 16 17 17 18 19 19 20 20 20 20 21 21 20 20 20 20 21 21 21 22 22 22 22 23 23 23 23 23 24 24 24 25 26 26 26 26 26 26 26 27 27
14 14 14 15 15 16 17 17 17 18 19 20 20 20 20 20 20 20 21 21 21 21 22 21 22 22 22 22 22 22 22 23 24 24 24 24 25 25 25 25 25 26 27 27
14 14 14 15 16 16 17 17 17 17 17 17 18 18 18 19 19 20 21 21 21 21 21 21 21 21 21 21 21 21 22 22 23 23 23 24 24 24 25 26 26 26 27 28
13 13 13 13 13 14 15 15 15 16 16 16 16 17 18 19 20 20 19 19 19 19 19 20 20 21 21 21 21 21 22 22 22 23 23 24 24 25 25 26 26 27 28 28
12 12 12 13 12 13 14 14 14 15 14 15 15 16 16 17 17 17 16 17 18 18 19 19 20 21 21 22 21 22 22 22 23 23 24 25 25 26 26 27 27 28 28 29
12 12 11 12 12 12 12 12 12 12 13 13 14 14 14 14 15 15 16 16 17 17 18 19 20 20 21 21 21 22 23 23 24 24 25 25 26 27 27 28 28 29 29 29
11 10 10 10 11 11 11 10 10 11 11 11 12 12 13 13 14 14 15 16 16 17 18 19 20 20 21 21 21 22 22 23 23 23 24 25 26 27 28 28 29 29 29 29

GEFSNGP_500_meanwind_246.txt.gz
Wind_Speed
33 33 33 32 32 32 32 31 31 30 29 28 27 27 26 25 24 24 24 24 25 25 25 25 25 25 25 26 26 25 24 24 24 24 24 24 24 23 23 23 22 22 22 23
34 34 33 33 33 33 33 32 31 31 30 28 27 27 26 26 26 26 26 25 25 26 26 26 26 25 25 25 25 25 25 25 25 25 25 25 25 24 25 24 24 24 24 25
34 34 34 35 34 33 33 32 31 31 30 29 28 28 27 26 27 27 27 27 27 27 27 27 27 27 26 27 27 26 26 27 26 27 27 27 26 26 26 26 25 26 26 26
34 34 35 34 34 34 33 33 33 33 32 31 31 29 28 27 28 28 28 27 27 28 28 28 28 28 28 28 28 28 28 29 29 28 28 28 28 28 28 28 28 27 28 28
35 35 35 34 34 33 33 33 33 33 33 32 31 30 30 29 29 29 29 28 29 29 29 28 28 29 29 29 29 29 29 30 30 31 30 30 30 30 30 30 30 30 30 30
36 36 35 34 35 33 33 34 33 33 32 31 31 30 29 29 29 29 29 29 29 30 30 29 29 29 30 30 30 31 31 32 31 32 32 32 32 32 31 30 31 32 32 32
36 36 36 36 35 34 34 33 33 32 32 32 31 30 30 29 29 29 30 30 30 30 31 30 30 31 31 31 31 32 32 32 32 33 33 33 32 32 32 32 32 32 32 32
37 37 37 38 36 35 34 33 32 32 32 32 31 31 30 30 30 30 30 30 31 31 32 32 32 32 32 32 32 32 32 32 32 33 34 34 33 32 32 33 33 32 33 34
37 37 37 38 37 36 35 34 33 32 32 32 31 31 31 31 31 31 31 32 31 31 32 32 32 32 32 32 33 32 32 32 33 33 34 33 33 33 33 33 32 33 33 33
36 37 37 37 36 35 35 33 32 32 32 31 31 31 32 31 32 32 32 32 31 31 31 32 32 32 31 31 31 31 32 32 32 32 33 32 32 32 32 32 32 32 32 33
36 36 35 35 35 34 34 33 32 32 32 32 31 31 31 31 31 31 32 32 32 31 31 31 31 31 31 31 31 30 30 30 30 31 31 32 32 32 32 31 31 31 32 33
32 32 33 33 33 33 33 33 32 32 33 32 32 31 31 31 31 31 31 31 31 31 31 31 31 31 31 31 29 29 30 29 28 29 30 30 31 31 31 30 30 31 31 31
30 30 30 31 31 32 31 31 31 31 31 31 30 30 30 30 31 31 31 32 32 31 30 29 29 29 28 28 27 27 28 27 27 27 28 29 29 29 29 30 30 30 31 31
28 28 28 28 28 29 29 29 30 29 28 28 28 28 28 29 29 30 30 30 29 29 28 28 28 28 27 27 27 26 26 26 26 27 27 28 28 29 29 30 31 30 30 31
26 26 26 26 26 27 27 28 27 27 26 26 26 26 26 27 27 28 28 28 28 28 28 27 27 27 26 26 26 26 26 26 27 27 27 27 28 29 29 30 30 30 29 29
22 22 22 23 23 24 24 25 25 24 25 26 26 25 26 26 26 26 26 26 27 27 27 27 26 25 24 24 24 25 25 25 26 27 27 28 28 28 29 29 29 29 29 29
19 19 20 20 21 21 21 22 22 22 23 24 24 24 25 25 26 26 26 26 26 25 25 26 25 24 23 23 24 24 25 25 24 24 25 26 27 27 28 29 30 29 29 30
17 16 17 18 19 19 19 19 19 21 22 22 23 23 23 23 23 23 23 23 23 23 23 23 23 23 22 22 22 23 23 23 24 24 25 25 26 27 27 28 28 28 29 29
13 13 14 15 17 17 18 18 18 19 20 21 21 21 22 21 21 20 21 21 21 22 22 22 22 22 22 22 22 23 23 23 24 24 25 25 25 26 26 26 26 27 27 28
13 13 13 13 14 14 15 17 18 18 19 19 19 20 20 20 20 20 20 20 20 21 22 22 21 21 21 21 21 22 22 23 24 24 24 24 24 25 25 25 25 26 26 27
12 12 13 13 13 14 14 16 16 17 18 17 17 18 18 19 19 19 19 19 19 20 20 19 19 19 20 20 20 21 22 22 22 22 22 22 23 24 24 24 24 24 25 25
10 11 12 13 13 14 15 16 16 17 17 17 17 17 18 18 18 19 19 19 19 19 19 19 19 19 18 19 19 20 20 21 21 21 21 21 21 22 23 23 24 24 24 24
11 11 11 12 12 13 14 15 15 15 15 16 17 17 17 17 18 18 18 18 19 18 18 18 18 18 18 18 19 19 20 20 20 20 20 21 21 22 23 24 24 25 25 26
11 11 11 11 11 12 12 13 13 13 13 14 14 14 15 16 16 16 17 17 17 17 17 18 17 18 18 18 19 19 20 19 19 20 20 21 22 23 24 24 25 26 27 28
10 10 11 11 11 11 11 12 12 11 11 11 12 13 13 14 14 14 14 14 15 15 17 17 17 17 18 18 19 19 19 19 20 21 21 22 23 24 25 25 26 26 27 28
8 8 9 9 9 9 10 10 10 10 10 10 11 12 12 12 13 13 13 14 14 15 16 17 17 17 17 17 18 18 18 19 20 21 22 22 23 23 24 25 26 27 28 29
8 8 8 8 8 8 8 8 8 9 9 9 10 11 11 11 12 12 13 14 14 14 15 15 16 16 16 16 17 17 18 19 20 20 21 22 23 24 25 25 26 27 27 27

GEFSNGP_500_meanwind_252.txt.gz
Wind_Speed
33 31 30 29 29 29 30 29 30 30 29 27 26 26 27 29 30 29 28 27 26 26 25 25 26 26 26 27 26 26 25 25 25 25 25 24 24 24 23 23 22 22 22 21
35 34 34 34 32 31 30 29 31 31 32 29 28 29 29 29 31 31 29 29 29 28 27 26 27 27 28 28 28 28 27 27 27 27 27 26 26 25 25 25 25 24 24 24
37 35 36 37 34 32 33 33 32 31 32 31 30 31 31 31 31 31 31 30 29 29 29 28 28 29 29 30 29 29 29 29 29 29 28 28 29 28 27 27 27 27 27 27
37 37 38 35 33 33 34 34 34 35 35 33 32 32 33 34 34 33 32 32 31 31 31 30 30 30 31 31 31 30 30 30 30 30 30 30 29 29 29 29 29 29 29 29
36 35 36 34 32 32 33 36 35 35 35 34 34 34 34 35 35 33 34 33 33 33 33 32 32 32 32 31 31 31 31 31 31 31 30 30 30 31 31 31 32 31 30 30
35 35 35 34 32 33 34 37 37 36 35 33 33 34 33 33 33 34 35 33 33 33 33 33 32 32 32 32 32 32 32 32 32 32 32 32 32 33 33 33 32 32 32 32
36 36 35 35 33 32 34 35 35 34 34 33 33 33 34 33 33 34 34 33 32 33 33 33 33 33 32 33 33 33 33 34 34 34 34 34 34 34 33 33 34 33 33 33
35 37 36 35 33 34 34 34 34 34 34 35 34 34 34 34 33 34 33 32 32 32 33 33 33 33 34 35 35 34 35 34 34 35 35 35 35 35 34 35 35 34 34 34
35 36 36 36 35 35 34 34 34 35 36 35 36 36 34 34 35 34 33 33 33 33 34 33 33 34 35 35 35 35 35 35 35 36 36 36 35 35 35 36 36 35 35 36
36 36 36 35 35 35 34 35 35 35 35 36 37 36 36 35 35 34 34 34 33 34 34 33 33 34 34 35 35 35 34 34 35 36 35 35 36 35 36 35 36 36 36 36
37 37 36 35 35 35 35 35 36 36 37 38 37 37 36 35 35 35 34 34 34 34 34 34 34 34 34 34 34 34 34 35 35 35 35 35 35 34 35 35 36 36 36 36
35 37 38 38 37 36 36 36 37 37 37 36 36 35 35 35 35 34 34 34 33 33 33 32 33 33 33 33 33 34 34 34 34 34 35 34 34 34 34 34 34 34 34 34
35 35 36 37 36 36 35 35 34 34 34 34 34 34 34 34 34 33 34 34 33 32 32 31 31 32 32 33 33 33 32 32 32 33 33 33 33 32 33 33 34 35 34 33
35 35 34 34 34 34 33 33 33 32 32 32 32 31 31 32 33 32 32 32 32 32 31 31 31 32 32 32 32 31 30 30 30 30 31 31 30 31 32 32 32 33 33 32
33 33 32 32 31 31 31 31 31 31 30 30 30 30 30 31 31 31 31 31 32 32 31 31 31 32 31 30 29 29 29 29 29 29 28 29 29 31 31 31 32 32 31 32
29 29 29 30 28 28 29 29 29 29 29 28 29 28 28 29 29 29 29 29 30 29 29 30 31 30 29 29 29 30 29 28 28 28 28 29 29 30 30 30 31 30 30 30
25 26 27 27 27 27 27 28 28 28 28 27 27 27 27 27 27 27 28 28 28 28 29 29 29 29 29 29 29 29 28 28 28 28 29 29 28 28 28 29 29 29 29 29
21 22 23 24 24 25 25 25 26 26 26 26 27 26 25 25 26 26 26 27 27 28 28 28 28 28 27 27 28 28 28 28 29 29 28 28 27 27 28 28 29 29 28 28
19 19 20 20 21 22 23 23 23 23 23 24 24 24 24 24 24 24 25 25 25 26 26 26 25 25 25 26 27 27 27 26 27 27 27 26 26 26 27 28 28 28 29 29
16 17 18 18 19 20 20 21 20 20 21 21 22 22 22 22 22 22 23 23 24 24 25 25 24 24 24 25 25 25 24 24 24 25 26 26 26 26 26 26 27 28 28 29
14 14 15 16 17 17 18 18 18 18 18 19 20 20 21 21 21 21 21 21 22 22 21 21 21 22 22 23 22 22 23 23 23 23 24 25 25 25 25 25 25 26 27 28
11 11 12 13 15 14 15 16 16 16 17 17 18 19 20 20 20 19 19 19 19 19 20 20 20 20 20 20 20 21 21 21 22 22 23 23 24 24 24 25 26 26 27 27
12 11 11 11 11 12 12 13 14 14 15 15 16 16 18 18 17 17 17 18 19 19 19 18 18 18 19 19 19 19 20 21 22 22 22 22 22 23 24 25 25 26 26 27
11 11 11 11 11 11 11 11 12 13 13 13 13 14 15 15 15 16 16 16 17 17 17 17 18 19 19 18 19 19 20 20 20 20 21 21 22 22 24 24 25 25 25 26
10 11 11 11 11 11 10 11 11 12 11 12 11 12 12 13 13 14 15 15 15 16 16 17 18 18 18 18 18 18 18 19 20 21 21 22 23 24 24 24 24 25 26 26
10 10 10 10 10 10 10 10 11 11 11 12 11 11 11 12 12 12 12 13 14 15 15 16 17 17 17 18 18 18 19 20 20 21 22 23 24 24 24 25 26 27 27 27
8 9 10 10 9 9 10 10 11 11 10 10 10 10 10 10 11 11 12 12 13 14 14 15 15 16 16 17 18 19 20 21 21 22 23 24 24 25 25 25 26 27 28 28

GEFSNGP_500_meanwind_258.txt.gz
Wind_Speed
31 29 29 30 29 30 32 33 32 30 30 28 28 26 26 27 27 27 26 26 24 23 23 23 23 23 23 23 23 23 23 23 24 24 24 25 25 25 24 24 23 23 22 21
33 32 32 32 31 31 33 34 34 32 31 30 30 29 28 29 29 28 28 27 25 26 26 25 25 25 24 24 24 24 25 25 25 25 25 26 26 26 26 25 25 25 24 24
35 35 35 35 34 34 34 35 35 34 33 32 31 31 30 30 31 30 29 28 28 28 29 28 27 26 26 25 26 26 26 27 27 26 26 26 26 27 27 27 27 27 27 27
36 36 37 34 34 36 37 38 38 36 35 34 33 32 32 32 32 32 32 33 32 31 30 30 29 28 27 28 28 28 28 28 28 28 28 28 28 29 29 29 29 29 29 29
36 37 36 34 34 35 37 38 38 38 36 34 34 34 33 33 32 32 33 33 33 31 31 30 30 30 30 30 29 29 29 30 30 30 30 30 30 30 30 30 31 31 31 31
36 36 36 34 34 35 36 38 38 38 38 37 35 34 33 32 32 31 32 32 33 33 31 32 32 32 31 30 30 30 31 31 31 31 31 31 31 31 31 31 31 31 32 32
36 36 35 34 34 34 37 38 37 38 38 39 38 36 33 33 32 31 31 32 32 33 32 32 32 32 32 32 31 31 32 32 32 32 32 32 32 32 33 33 33 33 33 33
36 37 36 34 35 36 37 38 38 37 37 36 36 36 35 33 33 32 32 33 33 33 33 32 32 32 32 32 31 32 32 33 33 33 33 33 33 33 34 34 33 33 34 34
36 36 36 35 36 36 37 37 37 37 35 34 34 35 36 35 34 34 35 35 34 34 33 32 32 32 32 31 32 32 33 33 33 33 33 33 33 34 34 33 33 33 34 34
35 35 35 35 35 36 36 37 37 37 36 35 35 35 35 36 37 37 36 36 36 36 35 34 33 33 32 32 32 32 33 33 33 32 33 33 32 32 32 32 32 32 32 32
35 34 34 34 34 35 35 35 36 35 34 35 35 34 37 37 36 35 35 35 36 36 35 34 34 33 32 32 32 32 32 32 32 32 32 31 30 30 30 30 31 31 32 33
34 33 33 33 34 34 34 34 34 34 33 33 34 34 35 35 35 35 35 35 34 34 34 33 32 32 31 32 31 31 31 31 31 31 31 31 30 30 30 31 31 31 31 31
33 34 34 33 33 33 33 32 33 33 33 34 35 35 33 32 33 33 33 32 32 32 32 31 31 31 31 31 31 31 31 31 30 30 30 30 30 30 30 30 30 29 30 30
33 33 33 32 32 32 33 33 33 33 33 32 33 34 33 31 31 31 31 31 32 32 31 29 30 30 30 30 30 30 30 30 30 29 29 29 29 29 28 28 28 29 29 30
30 31 31 30 31 31 33 33 33 32 33 32 32 32 32 31 31 30 30 29 30 29 28 27 28 29 29 29 29 29 29 29 29 28 28 28 28 28 29 29 28 28 28 29
27 27 29 29 29 30 31 31 31 31 31 31 29 29 29 30 30 30 30 29 28 28 28 28 28 28 28 28 28 29 28 28 28 28 28 29 29 28 29 29 29 28 28 28
23 24 25 27 27 27 28 28 28 28 28 28 28 28 28 29 29 28 28 28 27 26 26 25 25 26 26 26 27 27 27 27 28 29 29 29 28 28 28 28 28 28 28 27
22 22 22 24 24 25 25 26 26 26 27 27 27 26 27 27 27 26 26 25 24 25 25 25 25 24 25 25 25 26 26 26 27 27 27 27 27 27 27 27 27 27 27 27
18 18 19 20 21 21 21 22 23 23 23 24 25 25 25 25 25 24 24 23 23 24 24 24 24 24 24 24 24 25 26 26 26 26 26 25 25 24 25 25 25 25 25 25
16 16 18 19 19 19 19 19 19 20 21 21 22 22 23 23 23 23 22 22 22 23 23 23 23 24 24 24 24 24 25 25 25 25 24 24 24 24 24 24 24 24 24 24
14 15 15 15 17 17 17 17 17 18 18 18 19 19 20 20 21 21 21 21 22 22 22 22 22 22 23 23 22 22 22 23 23 24 24 24 24 23 23 23 22 22 22 23
13 13 14 14 16 16 16 16 16 16 16 16 17 17 18 18 18 19 19 20 20 20 20 20 21 21 22 22 21 21 21 22 22 22 22 23 22 22 21 21 21 21 22 22
10 11 12 14 14 14 14 14 14 14 15 15 15 15 16 16 16 16 16 17 19 19 20 20 20 20 20 20 20 21 21 21 21 20 20 20 21 21 21 21 21 22 22 23
8 7 8 10 11 11 12 12 12 12 13 14 13 13 13 14 14 14 15 16 17 18 18 18 18 18 18 19 19 19 19 19 19 19 19 20 21 21 22 22 23 23 23 24
6 6 6 6 7 9 11 11 11 11 11 10 10 10 11 11 12 13 14 15 16 16 16 16 16 16 17 18 18 17 17 18 18 18 19 21 22 22 23 24 24 25 25 25
6 6 6 7 7 7 8 9 9 8 8 8 8 8 9 10 10 11 13 13 14 14 14 15 15 16 16 16 16 17 17 18 19 19 20 21 22 22 23 24 24 24 25 25
5 5 5 5 5 6 6 6 7 7 6 7 7 8 8 8 8 9 10 11 13 13 14 14 15 15 16 16 16 17 18 19 19 19 21 21 22 22 23 23 23 23 23 23

GEFSNGP_500_meanwind_264.txt.gz
Wind_Speed
32 31 31 31 31 30 32 32 33 32 32 29 28 28 27 27 26 25 24 24 23 23 22 21 21 22 22 22 22 22 21 21 22 22 22 23 24 24 24 24 25 25 25 25
34 33 33 32 32 32 33 34 34 33 32 30 29 29 29 28 28 27 25 25 24 24 24 23 23 23 24 24 23 23 23 23 23 24 24 26 26 26 26 26 25 26 26 26
36 35 35 35 33 33 33 33 33 34 33 31 31 30 30 29 29 28 27 26 26 26 26 25 25 25 25 26 26 26 26 26 26 26 26 27 28 28 27 27 27 27 28 28
37 37 38 35 35 35 35 34 34 34 34 34 33 32 31 31 31 30 30 29 29 29 29 29 28 28 28 29 29 29 29 29 28 29 28 29 29 28 29 29 29 29 29 29
39 39 38 36 36 35 35 35 35 35 35 35 34 34 33 32 31 31 32 32 32 31 31 31 31 31 31 31 31 30 30 30 29 30 30 30 30 31 31 31 31 31 31 31
38 39 38 36 36 36 36 36 34 35 35 34 34 34 33 33 33 33 33 33 33 32 32 32 32 32 32 33 33 32 30 30 30 31 31 31 32 32 33 33 33 33 33 33
38 39 38 36 36 37 37 36 34 35 35 34 33 33 33 34 33 33 33 33 33 32 32 31 31 31 32 32 33 32 32 31 31 33 33 33 33 34 34 34 34 34 34 34
37 37 37 35 36 37 36 36 35 34 33 33 33 33 33 34 34 34 34 34 34 33 32 32 32 32 32 33 33 33 33 33 33 34 34 34 34 34 35 35 35 35 35 35
37 37 36 35 35 36 35 33 33 34 34 34 34 34 34 34 35 35 35 35 34 33 33 33 34 34 34 33 34 35 35 34 34 33 34 35 35 35 35 35 35 34 34 34
35 34 34 34 34 34 34 33 32 34 34 34 34 34 35 34 34 34 36 36 35 35 34 35 35 34 34 34 35 36 36 36 35 35 35 35 35 35 34 34 35 35 34 33
34 32 33 33 33 33 34 33 32 33 33 34 34 34 34 34 33 34 35 36 35 35 35 35 35 35 35 35 36 36 36 36 36 35 34 34 34 34 35 34 34 34 33 33
32 32 33 32 32 32 32 32 31 31 32 33 33 33 33 33 34 34 34 35 36 36 36 36 36 35 36 36 36 36 36 35 34 34 34 34 33 33 33 34 34 34 33 33
32 32 32 31 30 30 31 31 30 30 30 31 31 32 32 33 32 33 33 34 35 36 36 36 36 36 36 35 35 35 35 35 35 34 33 32 32 33 33 33 33 33 33 32
30 31 31 30 30 29 29 30 30 30 30 30 31 31 31 31 31 32 32 33 34 35 35 35 35 35 36 35 34 34 33 33 33 32 31 31 31 31 32 32 32 32 32 32
29 30 30 29 30 30 28 28 29 29 29 28 29 30 30 30 29 30 30 31 32 33 33 33 34 35 35 35 34 33 32 32 32 31 31 31 30 31 31 31 31 32 31 31
28 29 30 29 29 29 29 29 29 29 28 28 29 29 30 29 28 28 29 30 30 31 31 31 32 33 33 32 31 31 30 30 29 29 29 29 30 30 30 29 29 30 30 30
26 27 28 29 29 28 28 27 27 27 27 28 27 28 29 29 28 28 29 29 29 29 29 29 29 29 30 30 29 29 28 28 28 28 28 28 28 29 28 28 28 29 29 29
24 25 26 27 27 26 26 26 25 25 25 26 26 26 26 27 27 27 27 27 26 26 26 27 28 27 28 28 27 27 27 26 26 27 27 27 27 27 27 27 27 27 27 27
22 23 24 24 24 24 24 24 23 22 23 23 24 24 25 25 25 26 26 26 25 25 25 26 26 26 26 26 25 24 24 24 25 25 25 25 25 25 26 26 26 26 26 25
18 19 20 21 21 21 21 22 22 21 21 21 21 22 23 23 22 22 23 24 24 24 24 25 25 26 26 26 24 24 24 24 24 23 24 24 25 25 25 25 25 25 24 24
16 16 16 17 17 17 17 18 19 19 18 17 17 17 18 19 19 19 21 22 22 22 22 23 23 23 24 25 25 24 25 23 22 22 23 23 24 24 23 23 23 23 23 23
14 14 14 15 15 15 14 14 15 15 15 15 15 15 16 16 17 17 19 20 20 21 21 22 22 22 22 23 23 23 23 22 21 21 22 22 23 22 22 21 21 21 21 22
12 12 12 12 12 12 12 12 12 12 13 14 14 14 14 14 15 15 16 17 19 19 20 20 21 21 20 20 21 21 20 19 20 21 21 21 21 20 20 20 20 20 19 20
9 9 9 9 10 11 11 11 11 11 11 11 11 11 11 12 13 13 14 15 16 17 18 18 19 19 19 20 19 18 18 18 19 20 20 20 19 19 20 20 20 20 20 20
7 7 7 7 7 8 8 9 10 10 10 10 10 10 11 12 12 13 14 15 15 16 17 17 18 18 18 17 16 16 17 18 18 18 18 18 19 19 19 19 20 21 21 21
5 6 5 6 6 6 7 7 8 8 9 9 10 10 11 11 11 12 12 13 14 15 15 15 16 15 15 16 16 16 17 17 17 17 17 18 18 19 19 19 19 20 21 21
5 5 5 5 5 5 5 6 7 7 8 8 9 9 10 10 10 10 10 11 12 13 13 14 13 14 15 15 15 15 16 16 17 17 17 18 18 18 19 20 21 21 22 23

GEFSNGP_500_meanwind_270.txt.gz
Wind_Speed
28 28 29 29 29 29 30 30 30 29 28 28 28 28 26 26 26 26 26 25 26 26 26 27 26 26 26 26 25 25 24 24 25 24 23 23 23 23 23 23 23 23 24 24
30 30 30 31 31 31 32 31 31 31 31 30 30 29 28 27 28 28 28 27 27 27 27 27 27 27 27 27 27 27 27 27 26 26 25 25 25 26 26 26 25 26 26 27
31 31 32 33 32 32 32 31 31 32 32 31 31 30 29 29 29 29 29 28 28 28 29 29 28 29 29 30 30 30 29 28 28 27 27 27 28 28 28 28 28 28 28 28
32 33 33 33 33 32 32 31 32 32 33 33 32 32 31 30 30 30 29 29 30 30 30 30 30 30 30 31 32 31 30 30 29 29 30 30 31 30 30 31 30 30 30 30
32 33 33 34 34 32 32 33 33 33 33 33 33 33 32 31 31 31 30 30 31 31 31 31 31 32 32 32 32 32 32 31 31 31 32 32 33 33 33 32 32 31 31 31
33 33 32 32 33 32 33 35 34 35 35 34 33 33 32 32 32 32 31 31 32 31 32 31 32 32 33 33 33 33 33 33 33 33 34 34 35 35 34 34 33 32 33 32
34 34 32 32 32 31 33 34 34 34 34 34 34 33 33 33 33 33 33 32 32 32 32 33 33 33 34 34 34 34 34 34 34 34 35 35 35 35 35 36 36 35 35 34
33 34 33 33 32 32 32 33 34 33 33 33 34 34 34 33 33 33 34 34 33 33 33 33 34 34 34 34 35 35 35 35 35 36 36 36 36 36 36 36 36 35 36 34
34 34 34 34 33 32 32 32 32 32 32 33 33 33 32 33 33 34 34 34 34 34 33 34 34 35 35 36 36 36 36 36 36 36 37 37 37 37 36 36 35 35 35 34
34 34 34 33 33 33 32 32 32 32 32 32 32 31 32 32 33 33 33 33 34 34 34 34 35 35 35 36 36 36 36 36 36 37 37 37 37 36 36 36 35 35 35 34
34 34 34 33 34 33 33 32 33 32 32 32 31 31 31 31 32 32 32 33 34 34 34 34 35 36 36 36 36 35 35 35 36 36 36 37 36 36 36 36 35 35 35 35
34 34 34 34 34 33 32 33 32 31 31 31 30 29 29 30 31 32 32 32 33 33 34 34 35 35 35 35 35 34 34 34 35 35 35 36 36 35 35 35 35 34 35 35
32 32 33 32 32 32 32 31 31 31 30 29 30 29 29 30 31 32 32 32 33 33 33 32 32 33 34 34 34 33 33 33 34 34 34 34 34 34 34 34 33 33 34 34
30 31 31 31 31 31 31 30 29 29 29 29 30 29 29 30 31 31 32 32 33 33 32 32 32 33 33 33 33 32 32 32 32 33 33 32 32 33 33 33 33 33 33 33
28 29 29 30 30 29 29 29 29 29 28 29 29 28 28 29 29 29 29 30 30 31 32 31 32 32 32 32 32 32 32 31 31 31 31 31 31 31 31 31 31 31 30 31
25 26 27 28 29 29 28 28 28 28 27 28 28 28 28 28 29 28 28 28 28 29 29 30 30 30 31 31 31 31 31 30 30 30 30 30 31 30 30 30 30 29 30 30
24 24 25 25 26 27 27 27 27 27 26 26 26 27 27 27 27 27 27 27 28 28 27 28 28 29 30 30 30 30 30 30 29 29 29 29 29 29 29 29 29 29 29 30
22 23 23 23 24 25 26 26 26 25 24 24 25 25 25 26 26 26 26 26 27 27 27 27 27 28 28 27 27 27 27 26 27 27 27 27 27 27 27 28 28 28 29 29
20 20 21 21 22 23 23 23 23 24 24 23 23 23 23 23 24 24 25 25 25 26 26 26 26 26 26 25 25 25 25 25 25 25 26 26 26 26 26 26 26 26 26 25
18 18 18 18 19 20 20 20 21 22 22 21 21 21 21 21 22 22 23 23 24 24 25 24 24 23 23 22 22 23 23 23 23 24 24 24 24 24 24 24 24 24 24 23
15 15 15 16 16 17 17 17 18 18 17 18 19 20 20 19 19 20 20 21 22 22 22 22 21 20 20 21 22 22 22 22 23 23 22 22 22 22 22 23 22 22 22 21
13 13 14 14 15 15 15 16 16 16 16 16 15 16 17 17 17 17 18 19 20 20 20 21 21 21 20 20 22 22 22 21 21 21 21 21 22 22 23 22 22 21 21 20
12 12 12 12 12 12 13 13 13 13 13 13 13 13 14 15 16 16 17 18 18 18 19 20 20 20 20 20 21 21 21 20 19 19 20 20 21 22 21 20 21 22 21 21
9 9 10 9 9 9 9 9 9 10 11 11 10 10 11 12 14 14 15 16 17 17 17 17 18 18 19 19 19 19 19 19 19 19 19 19 21 21 20 20 21 21 21 21
8 8 8 8 8 8 8 8 8 8 9 9 9 9 9 10 11 11 12 13 14 15 15 16 16 16 16 17 18 18 18 18 18 18 19 19 19 19 19 20 19 20 21 21
7 7 6 6 6 6 6 7 7 7 8 8 8 9 9 9 9 10 11 11 12 13 14 15 16 16 16 16 16 17 17 17 17 18 18 18 18 19 19 19 19 20 21 21
6 5 5 6 6 6 6 6 6 7 8 8 8 9 9 8 8 9 10 10 11 12 13 13 14 15 15 16 17 17 17 18 18 18 19 19 20 20 20 20 21 21 22 22

GEFSNGP_500_meanwind_276.txt.gz
Wind_Speed
26 24 25 26 25 25 26 26 26 25 25 25 27 28 29 31 32 31 29 28 28 28 29 29 29 28 27 26 27 27 27 27 27 26 26 26 25 25 24 23 23 24 24 24
27 26 26 27 26 26 27 27 27 27 27 26 28 29 30 31 33 32 30 30 30 30 31 30 30 30 30 29 29 29 28 28 29 28 28 27 27 27 26 25 25 25 26 26
27 26 27 28 26 26 26 26 27 28 29 30 30 31 30 31 32 31 30 30 31 31 31 31 30 31 31 31 31 30 29 29 30 30 29 29 29 29 28 28 27 27 28 28
29 28 29 27 26 28 30 29 29 31 32 33 32 32 32 32 34 33 32 31 31 30 30 31 31 31 31 32 32 32 32 31 32 32 32 32 32 31 31 31 30 30 30 30
31 30 29 27 27 28 29 30 30 31 32 32 32 33 34 35 35 34 34 33 32 31 31 31 31 31 31 31 31 32 33 33 33 33 33 33 34 33 32 32 32 32 32 32
32 31 30 26 27 28 29 30 31 31 32 31 32 33 34 35 35 34 35 35 35 34 33 33 32 32 33 32 32 33 33 33 34 34 35 35 35 35 34 34 34 34 33 34
33 33 31 29 28 29 31 32 31 31 32 33 33 35 36 36 35 34 34 35 35 33 33 33 33 33 33 33 33 33 33 34 34 35 36 36 35 35 35 36 36 35 36 36
33 33 32 30 30 32 33 33 33 33 33 34 35 35 36 36 36 35 36 36 35 34 34 34 34 33 33 34 34 34 34 34 35 36 36 36 36 36 36 36 37 37 37 37
32 33 33 33 34 35 36 35 34 34 34 35 35 35 35 36 36 36 36 36 35 36 35 34 34 33 34 35 35 35 35 36 36 36 37 36 36 37 37 38 38 38 39 39
33 33 33 35 36 37 37 36 36 36 36 36 37 37 36 36 36 36 36 36 37 37 36 35 34 34 34 35 35 36 36 37 36 36 36 36 36 37 37 38 38 38 38 38
35 35 35 36 36 36 36 37 37 37 37 37 37 37 37 37 37 35 35 35 35 36 36 36 35 34 34 34 34 35 36 36 36 36 36 35 35 36 37 38 38 38 37 37
34 34 34 34 35 35 36 36 36 36 36 36 37 38 37 36 36 35 35 35 33 33 34 34 34 34 33 34 34 35 35 34 35 35 35 34 35 35 35 35 36 35 34 34
33 33 33 34 35 35 35 35 35 35 35 36 36 36 36 36 35 34 34 33 33 33 32 32 32 32 32 33 34 34 34 33 33 33 32 33 33 33 33 32 32 32 32 32
32 32 32 32 33 34 34 33 33 33 34 35 35 35 34 34 34 34 33 33 32 32 31 31 32 32 32 32 32 32 32 32 32 31 31 32 32 32 32 31 31 30 30 31
31 31 32 32 32 33 32 32 32 32 33 33 33 33 32 32 32 32 32 32 32 32 31 31 31 31 31 31 31 31 31 31 31 31 31 31 31 31 31 31 30 30 31 32
31 31 30 31 31 31 31 31 30 31 31 31 31 31 30 30 31 31 31 31 31 31 31 30 29 29 28 28 29 30 30 30 29 30 30 30 30 29 29 29 29 29 30 31
29 29 29 29 29 29 29 29 29 29 30 30 30 30 30 30 29 29 29 29 29 29 29 28 28 28 28 28 28 28 29 28 28 29 29 29 29 29 28 28 28 28 28 29
26 27 27 27 27 27 26 26 27 28 28 28 29 29 29 28 28 27 27 26 26 26 27 27 27 27 27 27 27 27 27 27 27 27 28 28 28 28 28 27 27 27 27 27
24 24 24 25 25 25 25 25 25 25 25 26 27 27 26 26 25 25 25 25 25 25 26 26 26 26 26 26 26 26 26 26 27 27 26 25 25 25 25 25 25 25 25 26
22 22 22 22 22 22 23 23 23 23 23 24 24 24 23 23 23 23 23 23 24 25 24 25 25 24 24 24 25 25 25 25 25 24 24 23 23 23 23 23 24 24 25 25
20 21 21 21 20 19 19 19 20 20 21 21 21 21 21 21 21 21 21 21 21 22 22 23 23 22 22 22 22 23 22 22 22 21 20 20 20 21 22 23 23 23 24 24
18 17 17 17 16 16 16 17 17 17 18 18 18 19 19 20 20 20 20 20 20 21 21 21 21 21 21 21 21 21 21 20 20 19 19 20 21 21 22 23 23 23 24 24
14 14 14 15 15 15 15 15 15 15 15 16 16 16 17 17 18 18 18 19 19 20 20 20 19 19 19 20 20 19 19 19 19 20 20 21 21 22 22 22 22 23 23 23
13 13 13 14 14 14 14 14 14 14 15 15 16 16 15 15 16 17 17 17 18 18 19 19 19 19 18 18 18 19 19 20 20 21 20 20 20 20 20 21 22 23 23 23
13 12 12 13 13 13 13 13 13 14 14 14 14 15 15 15 14 14 14 15 15 15 16 16 17 18 19 19 19 19 20 20 20 21 20 20 20 21 22 23 23 23 23 23
12 12 12 12 12 12 12 12 13 13 14 13 14 14 14 14 14 13 12 12 12 12 12 13 14 16 16 17 17 17 17 18 19 20 20 21 21 23 23 24 24 24 24 24
11 11 11 11 11 11 11 11 11 12 12 12 12 12 11 11 11 11 11 11 11 11 11 12 13 14 15 15 16 16 17 17 18 18 19 20 22 23 23 23 24 24 25 26

GEFSNGP_500_meanwind_282.txt.gz
Wind_Speed
26 26 26 26 25 25 26 26 27 28 27 26 26 25 25 26 26 25 25 25 25 25 24 25 25 25 25 25 25 25 24 24 24 25 25 25 25 24 24 23 23 23 23 23
27 27 27 27 26 27 27 28 29 29 28 26 26 27 28 28 28 28 27 27 27 26 26 27 26 27 27 27 26 27 27 27 26 26 27 26 26 26 26 26 26 25 26 26
28 28 29 28 27 28 29 29 29 29 28 28 28 29 28 27 28 29 29 29 28 27 28 28 29 28 28 27 28 28 28 28 29 28 29 28 28 28 28 28 28 28 28 27
31 31 31 29 29 29 30 30 30 29 28 28 28 28 29 29 30 30 30 30 29 29 29 29 29 30 30 29 30 30 29 29 30 30 29 29 29 30 29 29 30 30 29 28
32 31 30 28 28 28 30 31 31 31 30 29 29 29 29 29 30 30 30 30 31 31 30 30 31 32 32 32 31 31 31 30 31 30 29 29 30 30 30 31 31 32 31 29
32 32 32 29 28 28 30 31 30 31 32 31 31 31 31 31 31 32 32 32 32 32 32 32 32 32 33 32 31 31 32 32 32 32 31 30 31 31 31 32 33 33 33 31
33 33 32 31 29 29 31 31 30 30 32 32 31 31 31 33 32 32 32 32 33 33 32 32 32 32 32 32 31 31 32 33 33 32 32 32 32 32 32 33 33 34 33 32
33 33 33 32 31 30 30 30 30 31 32 32 31 31 32 32 33 33 33 34 34 33 33 33 33 33 32 32 31 32 32 32 32 32 32 31 32 32 33 32 32 32 32 32
33 33 33 31 30 30 30 30 30 30 31 32 32 32 33 33 33 33 34 34 34 34 35 34 34 34 34 32 32 32 32 32 31 32 32 31 32 32 32 32 32 32 32 33
32 31 32 32 32 31 31 31 31 32 32 33 33 33 32 33 33 34 35 35 35 35 36 36 35 35 34 34 33 32 32 32 32 32 32 33 33 33 33 33 32 32 33 33
32 31 32 31 32 33 33 32 33 33 33 33 33 33 33 33 34 34 34 34 35 35 35 36 35 34 35 34 33 32 32 32 32 32 32 33 33 33 33 33 33 33 33 33
31 30 31 31 31 32 33 32 31 32 33 34 33 33 34 34 34 34 34 35 35 34 34 34 34 33 33 33 33 32 32 32 32 32 32 32 32 32 32 32 32 32 32 31
31 31 31 31 32 31 31 31 31 32 33 34 34 34 34 34 35 35 35 35 34 33 33 32 32 31 31 32 32 31 32 32 31 31 31 31 31 31 30 30 30 30 30 30
30 30 31 31 33 33 33 33 33 32 32 33 33 33 33 34 34 34 33 33 33 32 32 32 31 30 30 30 30 30 30 30 30 30 30 29 29 29 29 29 29 29 29 29
29 30 31 31 32 32 32 33 33 33 32 32 32 32 32 32 32 32 32 33 33 32 31 31 31 30 30 29 29 29 29 29 30 30 29 29 29 29 28 28 28 28 28 28
27 29 30 30 30 31 31 31 32 32 31 31 31 31 31 32 32 32 32 32 33 33 31 31 30 29 29 28 28 28 29 29 29 29 29 29 29 28 28 28 28 27 26 26
26 26 27 28 29 29 29 29 30 31 31 31 31 31 31 31 30 30 31 31 31 32 30 29 29 29 29 28 28 28 28 28 28 27 27 27 27 27 27 27 26 26 25 25
25 25 26 26 27 28 28 28 28 29 30 30 30 29 29 29 28 28 28 28 28 29 28 27 28 28 28 27 26 26 26 26 26 25 25 25 26 25 25 24 24 24 24 24
23 24 25 25 26 26 26 27 27 28 28 28 27 27 28 27 26 26 25 25 25 26 26 26 26 26 25 25 25 25 25 24 25 25 24 24 24 24 23 23 23 23 23 23
21 22 24 24 24 24 24 24 24 24 24 25 25 24 24 24 24 23 24 23 23 24 24 25 24 23 23 23 24 23 23 22 22 23 23 23 22 22 22 22 22 22 22 23
20 21 22 23 23 23 22 22 22 22 22 21 21 22 22 22 22 22 22 22 21 22 23 22 22 22 22 22 22 22 21 21 21 21 21 21 21 21 21 21 21 21 22 22
19 19 19 19 20 21 20 20 20 20 19 19 20 20 20 20 21 21 20 20 20 21 21 21 21 20 21 20 21 21 21 21 21 21 21 21 20 20 20 21 21 20 20 21
17 17 17 17 17 17 17 17 18 18 18 18 18 18 18 18 19 19 19 19 20 20 20 20 20 20 20 20 21 21 20 21 21 21 21 21 21 20 21 21 21 20 20 21
14 15 15 15 15 15 15 15 16 16 17 17 18 18 17 18 18 18 18 19 18 18 18 19 19 19 20 20 20 20 20 21 20 21 20 20 20 20 20 20 20 20 21 21
13 13 14 14 14 14 14 14 15 15 16 16 16 16 16 16 16 16 15 15 15 16 16 16 17 17 17 18 18 18 18 19 19 20 20 20 20 20 20 20 20 21 21 21
13 13 13 13 13 13 13 13 14 14 14 14 14 14 14 14 13 13 13 14 14 14 14 13 13 13 14 15 16 16 17 18 18 18 18 19 19 18 18 18 19 20 21 21
12 12 12 12 12 13 13 13 13 12 12 12 12 12 12 12 11 11 11 11 11 12 12 12 11 12 13 13 13 14 15 16 16 17 17 17 17 17 18 18 19 20 21 21